Observation data for Tahoka on 11/17/2019      Previous  Date       Current Mesonet Observations  Soil Data  Daily Summary Page  Observations in Plain Language
KTAS 170600Z 21007KT 08/04 A2997 RMK A01 T00750043  RH  080%=      5-min Rain = 0
KTAS 170601Z 21008KT 08/04 A2997 RMK A01 T00750043  RH  080%=      5-min Rain = 0
KTAS 170602Z 21009KT 08/04 A2997 RMK A01 T00750043  RH  080%=      5-min Rain = 0
KTAS 170603Z 21009KT 07/04 A2997 RMK A01 T00740043  RH  080%=      5-min Rain = 0
KTAS 170604Z 21009KT 08/04 A2997 RMK A01 T00750043  RH  080%=      5-min Rain = 0
KTAS 170605Z 21009KT 08/04 A2996 RMK A01 T00750043  RH  080%=      5-min Rain = 0
KTAS 170606Z 21010KT 08/04 A2996 RMK A01 T00750043  RH  080%=      5-min Rain = 0
KTAS 170607Z 21009KT 08/04 A2997 RMK A01 T00750043  RH  080%=      5-min Rain = 0
KTAS 170608Z 21009KT 08/04 A2997 RMK A01 T00750043  RH  080%=      5-min Rain = 0
KTAS 170609Z 21008KT 08/04 A2997 RMK A01 T00750043  RH  080%=      5-min Rain = 0
KTAS 170610Z 21009KT 07/04 A2997 RMK A01 T00740043  RH  081%=      5-min Rain = 0
KTAS 170611Z 21009KT 07/04 A2997 RMK A01 T00740043  RH  081%=      5-min Rain = 0
KTAS 170612Z 21010KT 07/04 A2997 RMK A01 T00740043  RH  081%=      5-min Rain = 0
KTAS 170613Z 21009KT 07/04 A2997 RMK A01 T00740043  RH  081%=      5-min Rain = 0
KTAS 170614Z 21008KT 07/04 A2997 RMK A01 T00740043  RH  081%=      5-min Rain = 0
KTAS 170615Z 21009KT 07/04 A2997 RMK A01 T00740043  RH  081%=      5-min Rain = 0
KTAS 170616Z 21008KT 07/04 A2997 RMK A01 T00740043  RH  081%=      5-min Rain = 0
KTAS 170617Z 21008KT 07/04 A2997 RMK A01 T00730043  RH  081%=      5-min Rain = 0
KTAS 170618Z 21009KT 07/04 A2997 RMK A01 T00730043  RH  081%=      5-min Rain = 0
KTAS 170619Z 21008KT 07/04 A2997 RMK A01 T00730042  RH  081%=      5-min Rain = 0
KTAS 170620Z 21009KT 07/04 A2997 RMK A01 T00730043  RH  081%=      5-min Rain = 0
KTAS 170621Z 21009KT 07/04 A2997 RMK A01 T00730043  RH  081%=      5-min Rain = 0
KTAS 170622Z 22008KT 07/04 A2997 RMK A01 T00730043  RH  081%=      5-min Rain = 0
KTAS 170623Z 22009KT 07/04 A2997 RMK A01 T00730043  RH  081%=      5-min Rain = 0
KTAS 170624Z 22008KT 07/04 A2997 RMK A01 T00730043  RH  081%=      5-min Rain = 0
KTAS 170625Z 21009KT 07/04 A2997 RMK A01 T00720043  RH  081%=      5-min Rain = 0
KTAS 170626Z 21009KT 07/04 A2997 RMK A01 T00720042  RH  081%=      5-min Rain = 0
KTAS 170627Z 22008KT 07/04 A2997 RMK A01 T00710042  RH  082%=      5-min Rain = 0
KTAS 170628Z 22007KT 07/04 A2997 RMK A01 T00710042  RH  082%=      5-min Rain = 0
KTAS 170629Z 21008KT 07/04 A2997 RMK A01 T00710042  RH  082%=      5-min Rain = 0
KTAS 170630Z 21007KT 07/04 A2997 RMK A01 T00710042  RH  082%=      5-min Rain = 0
KTAS 170631Z 21007KT 07/04 A2996 RMK A01 T00700042  RH  082%=      5-min Rain = 0
KTAS 170632Z 22007KT 07/04 A2996 RMK A01 T00700042  RH  082%=      5-min Rain = 0
KTAS 170633Z 22007KT 07/04 A2996 RMK A01 T00690041  RH  082%=      5-min Rain = 0
KTAS 170634Z 22008KT 07/04 A2996 RMK A01 T00690042  RH  083%=      5-min Rain = 0
KTAS 170635Z 22007KT 07/04 A2996 RMK A01 T00690041  RH  083%=      5-min Rain = 0
KTAS 170636Z 21008KT 07/04 A2996 RMK A01 T00690041  RH  083%=      5-min Rain = 0
KTAS 170637Z 21007KT 07/04 A2996 RMK A01 T00690041  RH  083%=      5-min Rain = 0
KTAS 170638Z 21008KT 07/04 A2996 RMK A01 T00680041  RH  083%=      5-min Rain = 0
KTAS 170639Z 21008KT 07/04 A2996 RMK A01 T00680041  RH  083%=      5-min Rain = 0
KTAS 170640Z 21007KT 07/04 A2996 RMK A01 T00680041  RH  083%=      5-min Rain = 0
KTAS 170641Z 22007KT 07/04 A2997 RMK A01 T00680041  RH  083%=      5-min Rain = 0
KTAS 170642Z 22008KT 07/04 A2997 RMK A01 T00680041  RH  083%=      5-min Rain = 0
KTAS 170643Z 21007KT 07/04 A2997 RMK A01 T00680041  RH  083%=      5-min Rain = 0
KTAS 170644Z 21007KT 07/04 A2997 RMK A01 T00680040  RH  083%=      5-min Rain = 0
KTAS 170645Z 21007KT 07/04 A2997 RMK A01 T00670040  RH  083%=      5-min Rain = 0
KTAS 170646Z 21008KT 07/04 A2997 RMK A01 T00670040  RH  083%=      5-min Rain = 0
KTAS 170647Z 21007KT 07/04 A2997 RMK A01 T00660040  RH  083%=      5-min Rain = 0
KTAS 170648Z 21007KT 07/04 A2997 RMK A01 T00650039  RH  083%=      5-min Rain = 0
KTAS 170649Z 21007KT 07/04 A2997 RMK A01 T00650039  RH  084%=      5-min Rain = 0
KTAS 170650Z 22007KT 07/04 A2997 RMK A01 T00650039  RH  084%=      5-min Rain = 0
KTAS 170651Z 22007KT 07/04 A2997 RMK A01 T00650039  RH  084%=      5-min Rain = 0
KTAS 170652Z 22007KT 06/04 A2996 RMK A01 T00640039  RH  084%=      5-min Rain = 0
KTAS 170653Z 21007KT 06/04 A2997 RMK A01 T00640039  RH  084%=      5-min Rain = 0
KTAS 170654Z 22008KT 06/04 A2997 RMK A01 T00630039  RH  084%=      5-min Rain = 0
KTAS 170655Z 21007KT 06/04 A2997 RMK A01 T00630038  RH  084%=      5-min Rain = 0
KTAS 170656Z 21007KT 06/04 A2997 RMK A01 T00630038  RH  084%=      5-min Rain = 0
KTAS 170657Z 21007KT 06/04 A2996 RMK A01 T00620038  RH  085%=      5-min Rain = 0
KTAS 170658Z 21007KT 06/04 A2996 RMK A01 T00610037  RH  085%=      5-min Rain = 0
KTAS 170659Z 21007KT 06/04 A2996 RMK A01 T00610037  RH  085%=      5-min Rain = 0
KTAS 170700Z 21007KT 06/04 A2996 RMK A01 T00600037  RH  085%=      5-min Rain = 0
KTAS 170701Z 21007KT 06/04 A2996 RMK A01 T00600037  RH  085%=      5-min Rain = 0
KTAS 170702Z 21007KT 06/04 A2996 RMK A01 T00590037  RH  085%=      5-min Rain = 0
KTAS 170703Z 21007KT 06/04 A2996 RMK A01 T00590036  RH  086%=      5-min Rain = 0
KTAS 170704Z 21008KT 06/04 A2996 RMK A01 T00580036  RH  086%=      5-min Rain = 0
KTAS 170705Z 21008KT 06/04 A2996 RMK A01 T00570036  RH  086%=      5-min Rain = 0
KTAS 170706Z 21008KT 06/04 A2996 RMK A01 T00570036  RH  086%=      5-min Rain = 0
KTAS 170707Z 21008KT 06/04 A2996 RMK A01 T00570036  RH  086%=      5-min Rain = 0
KTAS 170708Z 21008KT 06/04 A2996 RMK A01 T00580036  RH  086%=      5-min Rain = 0
KTAS 170709Z 21007KT 06/04 A2996 RMK A01 T00570036  RH  086%=      5-min Rain = 0
KTAS 170710Z 21007KT 06/04 A2996 RMK A01 T00570036  RH  086%=      5-min Rain = 0
KTAS 170711Z 21007KT 06/04 A2996 RMK A01 T00570036  RH  086%=      5-min Rain = 0
KTAS 170712Z 21007KT 06/04 A2996 RMK A01 T00570036  RH  086%=      5-min Rain = 0
KTAS 170713Z 21008KT 06/04 A2996 RMK A01 T00570036  RH  086%=      5-min Rain = 0
KTAS 170714Z 21007KT 06/04 A2996 RMK A01 T00570035  RH  086%=      5-min Rain = 0
KTAS 170715Z 21007KT 06/04 A2996 RMK A01 T00560035  RH  086%=      5-min Rain = 0
KTAS 170716Z 21008KT 06/04 A2996 RMK A01 T00560035  RH  087%=      5-min Rain = 0
KTAS 170717Z 21008KT 06/04 A2996 RMK A01 T00550035  RH  087%=      5-min Rain = 0
KTAS 170718Z 21008KT 06/04 A2996 RMK A01 T00550035  RH  087%=      5-min Rain = 0
KTAS 170719Z 21008KT 06/04 A2996 RMK A01 T00550035  RH  087%=      5-min Rain = 0
KTAS 170720Z 21008KT 06/04 A2996 RMK A01 T00550035  RH  087%=      5-min Rain = 0
KTAS 170721Z 21008KT 06/04 A2996 RMK A01 T00550035  RH  087%=      5-min Rain = 0
KTAS 170722Z 21008KT 06/04 A2996 RMK A01 T00550035  RH  087%=      5-min Rain = 0
KTAS 170723Z 20008KT 06/04 A2996 RMK A01 T00550035  RH  087%=      5-min Rain = 0
KTAS 170724Z 20008KT 06/04 A2996 RMK A01 T00550036  RH  087%=      5-min Rain = 0
KTAS 170725Z 20008KT 06/04 A2996 RMK A01 T00560036  RH  087%=      5-min Rain = 0
KTAS 170726Z 20008KT 06/04 A2996 RMK A01 T00570037  RH  087%=      5-min Rain = 0
KTAS 170727Z 20008KT 06/04 A2996 RMK A01 T00570036  RH  087%=      5-min Rain = 0
KTAS 170728Z 20008KT 06/04 A2996 RMK A01 T00570036  RH  087%=      5-min Rain = 0
KTAS 170729Z 20007KT 06/04 A2996 RMK A01 T00570036  RH  087%=      5-min Rain = 0
KTAS 170730Z 21008KT 06/04 A2996 RMK A01 T00570037  RH  087%=      5-min Rain = 0
KTAS 170731Z 21007KT 06/04 A2996 RMK A01 T00570037  RH  087%=      5-min Rain = 0
KTAS 170732Z 21007KT 06/04 A2996 RMK A01 T00570037  RH  087%=      5-min Rain = 0
KTAS 170733Z 20007KT 06/04 A2996 RMK A01 T00570037  RH  087%=      5-min Rain = 0
KTAS 170734Z 20007KT 06/04 A2996 RMK A01 T00570037  RH  086%=      5-min Rain = 0
KTAS 170735Z 20007KT 06/04 A2996 RMK A01 T00570036  RH  086%=      5-min Rain = 0
KTAS 170736Z 20007KT 06/04 A2996 RMK A01 T00580037  RH  086%=      5-min Rain = 0
KTAS 170737Z 20006KT 06/04 A2996 RMK A01 T00570036  RH  086%=      5-min Rain = 0
KTAS 170738Z 20006KT 06/04 A2996 RMK A01 T00570035  RH  086%=      5-min Rain = 0
KTAS 170739Z 21006KT 06/04 A2996 RMK A01 T00560035  RH  086%=      5-min Rain = 0
KTAS 170740Z 21006KT 06/04 A2996 RMK A01 T00560035  RH  087%=      5-min Rain = 0
KTAS 170741Z 21006KT 06/04 A2996 RMK A01 T00550035  RH  087%=      5-min Rain = 0
KTAS 170742Z 21006KT 06/04 A2996 RMK A01 T00550035  RH  087%=      5-min Rain = 0
KTAS 170743Z 21005KT 05/03 A2997 RMK A01 T00540034  RH  087%=      5-min Rain = 0
KTAS 170744Z 22005KT 05/03 A2997 RMK A01 T00540034  RH  087%=      5-min Rain = 0
KTAS 170745Z 22005KT 05/03 A2997 RMK A01 T00530034  RH  087%=      5-min Rain = 0
KTAS 170746Z 22005KT 05/03 A2997 RMK A01 T00530033  RH  087%=      5-min Rain = 0
KTAS 170747Z 22005KT 05/03 A2997 RMK A01 T00520032  RH  087%=      5-min Rain = 0
KTAS 170748Z 22005KT 05/03 A2997 RMK A01 T00510032  RH  087%=      5-min Rain = 0
KTAS 170749Z 22005KT 05/03 A2997 RMK A01 T00510031  RH  087%=      5-min Rain = 0
KTAS 170750Z 22004KT 05/03 A2997 RMK A01 T00500031  RH  087%=      5-min Rain = 0
KTAS 170751Z 22004KT 05/03 A2997 RMK A01 T00490030  RH  088%=      5-min Rain = 0
KTAS 170752Z 22004KT 05/03 A2997 RMK A01 T00480030  RH  088%=      5-min Rain = 0
KTAS 170753Z 22003KT 05/03 A2997 RMK A01 T00470029  RH  088%=      5-min Rain = 0
KTAS 170754Z 22003KT 05/03 A2997 RMK A01 T00470028  RH  088%=      5-min Rain = 0
KTAS 170755Z 22003KT 05/03 A2997 RMK A01 T00450027  RH  088%=      5-min Rain = 0
KTAS 170756Z 22003KT 05/03 A2997 RMK A01 T00450027  RH  088%=      5-min Rain = 0
KTAS 170757Z 22003KT 04/03 A2997 RMK A01 T00440028  RH  089%=      5-min Rain = 0
KTAS 170758Z 22003KT 04/03 A2997 RMK A01 T00440028  RH  089%=      5-min Rain = 0
KTAS 170759Z 22003KT 04/03 A2997 RMK A01 T00440028  RH  090%=      5-min Rain = 0
KTAS 170800Z 22003KT 04/03 A2997 RMK A01 T00440028  RH  090%=      5-min Rain = 0
KTAS 170801Z 22003KT 04/03 A2997 RMK A01 T00440029  RH  090%=      5-min Rain = 0
KTAS 170802Z 22003KT 04/03 A2997 RMK A01 T00430028  RH  090%=      5-min Rain = 0
KTAS 170803Z 24003KT 04/03 A2997 RMK A01 T00420027  RH  090%=      5-min Rain = 0
KTAS 170804Z 24004KT 04/03 A2997 RMK A01 T00400025  RH  090%=      5-min Rain = 0
KTAS 170805Z 24004KT 04/02 A2997 RMK A01 T00390024  RH  090%=      5-min Rain = 0
KTAS 170806Z 24004KT 04/02 A2997 RMK A01 T00380023  RH  090%=      5-min Rain = 0
KTAS 170807Z 24004KT 04/02 A2997 RMK A01 T00370023  RH  090%=      5-min Rain = 0
KTAS 170808Z 24004KT 04/02 A2997 RMK A01 T00360022  RH  090%=      5-min Rain = 0
KTAS 170809Z 23005KT 04/02 A2996 RMK A01 T00350022  RH  091%=      5-min Rain = 0
KTAS 170810Z 23006KT 04/02 A2996 RMK A01 T00360023  RH  091%=      5-min Rain = 0
KTAS 170811Z 22006KT 04/02 A2996 RMK A01 T00350022  RH  091%=      5-min Rain = 0
KTAS 170812Z 22006KT 03/02 A2996 RMK A01 T00340022  RH  092%=      5-min Rain = 0
KTAS 170813Z 22006KT 03/02 A2996 RMK A01 T00330021  RH  092%=      5-min Rain = 0
KTAS 170814Z 22006KT 03/02 A2996 RMK A01 T00320020  RH  092%=      5-min Rain = 0
KTAS 170815Z 22005KT 03/02 A2996 RMK A01 T00320020  RH  092%=      5-min Rain = 0
KTAS 170816Z 22005KT 03/02 A2996 RMK A01 T00320021  RH  092%=      5-min Rain = 0
KTAS 170817Z 22005KT 03/02 A2996 RMK A01 T00320021  RH  092%=      5-min Rain = 0
KTAS 170818Z 23005KT 03/02 A2996 RMK A01 T00310020  RH  092%=      5-min Rain = 0
KTAS 170819Z 22005KT 03/02 A2996 RMK A01 T00310020  RH  092%=      5-min Rain = 0
KTAS 170820Z 22005KT 03/02 A2995 RMK A01 T00320021  RH  093%=      5-min Rain = 0
KTAS 170821Z 22004KT 03/02 A2996 RMK A01 T00320021  RH  093%=      5-min Rain = 0
KTAS 170822Z 23003KT 03/02 A2996 RMK A01 T00320022  RH  093%=      5-min Rain = 0
KTAS 170823Z 24002KT 03/02 A2996 RMK A01 T00320021  RH  093%=      5-min Rain = 0
KTAS 170824Z 25002KT 03/02 A2996 RMK A01 T00290017  RH  092%=      5-min Rain = 0
KTAS 170825Z 25002KT 03/01 A2996 RMK A01 T00250012  RH  091%=      5-min Rain = 0
KTAS 170826Z 29004KT 02/01 A2996 RMK A01 T00230010  RH  091%=      5-min Rain = 0
KTAS 170827Z 31005KT 02/01 A2996 RMK A01 T00200007  RH  091%=      5-min Rain = 0
KTAS 170828Z 29004KT 02/01 A2996 RMK A01 T00190006  RH  091%=      5-min Rain = 0
KTAS 170829Z 27004KT 02/01 A2996 RMK A01 T00190007  RH  092%=      5-min Rain = 0
KTAS 170830Z 27004KT 02/01 A2996 RMK A01 T00200009  RH  093%=      5-min Rain = 0
KTAS 170831Z 27004KT 02/01 A2996 RMK A01 T00210011  RH  093%=      5-min Rain = 0
KTAS 170832Z 26004KT 02/01 A2996 RMK A01 T00230013  RH  093%=      5-min Rain = 0
KTAS 170833Z 26004KT 02/02 A2996 RMK A01 T00240015  RH  094%=      5-min Rain = 0
KTAS 170834Z 26004KT 03/02 A2996 RMK A01 T00250016  RH  094%=      5-min Rain = 0
KTAS 170835Z 26004KT 03/02 A2996 RMK A01 T00250016  RH  094%=      5-min Rain = 0
KTAS 170836Z 26004KT 03/02 A2996 RMK A01 T00250015  RH  094%=      5-min Rain = 0
KTAS 170837Z 26004KT 03/02 A2996 RMK A01 T00250016  RH  094%=      5-min Rain = 0
KTAS 170838Z 26004KT 03/02 A2996 RMK A01 T00250016  RH  094%=      5-min Rain = 0
KTAS 170839Z 26004KT 03/02 A2996 RMK A01 T00260018  RH  094%=      5-min Rain = 0
KTAS 170840Z 26004KT 03/02 A2996 RMK A01 T00270019  RH  094%=      5-min Rain = 0
KTAS 170841Z 25004KT 03/02 A2996 RMK A01 T00290021  RH  095%=      5-min Rain = 0
KTAS 170842Z 25004KT 03/02 A2996 RMK A01 T00290021  RH  095%=      5-min Rain = 0
KTAS 170843Z 25004KT 03/02 A2996 RMK A01 T00290021  RH  094%=      5-min Rain = 0
KTAS 170844Z 25004KT 03/02 A2996 RMK A01 T00290020  RH  094%=      5-min Rain = 0
KTAS 170845Z 25004KT 03/02 A2996 RMK A01 T00280019  RH  094%=      5-min Rain = 0
KTAS 170846Z 25004KT 03/02 A2996 RMK A01 T00280019  RH  094%=      5-min Rain = 0
KTAS 170847Z 25004KT 03/02 A2996 RMK A01 T00280019  RH  094%=      5-min Rain = 0
KTAS 170848Z 25005KT 03/02 A2996 RMK A01 T00280019  RH  094%=      5-min Rain = 0
KTAS 170849Z 25005KT 03/02 A2996 RMK A01 T00280020  RH  094%=      5-min Rain = 0
KTAS 170850Z 25005KT 03/02 A2996 RMK A01 T00280019  RH  094%=      5-min Rain = 0
KTAS 170851Z 25004KT 03/02 A2996 RMK A01 T00280019  RH  094%=      5-min Rain = 0
KTAS 170852Z 25005KT 03/02 A2996 RMK A01 T00280020  RH  094%=      5-min Rain = 0
KTAS 170853Z 25005KT 03/02 A2996 RMK A01 T00290020  RH  094%=      5-min Rain = 0
KTAS 170854Z 25004KT 03/02 A2996 RMK A01 T00280020  RH  094%=      5-min Rain = 0
KTAS 170855Z 25004KT 03/02 A2996 RMK A01 T00280019  RH  094%=      5-min Rain = 0
KTAS 170856Z 25004KT 03/02 A2996 RMK A01 T00290020  RH  094%=      5-min Rain = 0
KTAS 170857Z 25005KT 03/02 A2996 RMK A01 T00290020  RH  094%=      5-min Rain = 0
KTAS 170858Z 24005KT 03/02 A2996 RMK A01 T00280020  RH  094%=      5-min Rain = 0
KTAS 170859Z 24005KT 03/02 A2996 RMK A01 T00280019  RH  094%=      5-min Rain = 0
KTAS 170900Z 24005KT 03/02 A2996 RMK A01 T00280019  RH  094%=      5-min Rain = 0
KTAS 170901Z 24005KT 03/02 A2996 RMK A01 T00270018  RH  094%=      5-min Rain = 0
KTAS 170902Z 24005KT 03/02 A2996 RMK A01 T00270018  RH  094%=      5-min Rain = 0
KTAS 170903Z 24005KT 03/02 A2996 RMK A01 T00260017  RH  094%=      5-min Rain = 0
KTAS 170904Z 24005KT 03/02 A2996 RMK A01 T00250016  RH  094%=      5-min Rain = 0
KTAS 170905Z 24005KT 03/02 A2996 RMK A01 T00250016  RH  094%=      5-min Rain = 0
KTAS 170906Z 24004KT 03/02 A2996 RMK A01 T00250016  RH  094%=      5-min Rain = 0
KTAS 170907Z 24004KT 02/02 A2996 RMK A01 T00240015  RH  094%=      5-min Rain = 0
KTAS 170908Z 24004KT 02/02 A2997 RMK A01 T00240015  RH  094%=      5-min Rain = 0
KTAS 170909Z 24005KT 02/02 A2997 RMK A01 T00240015  RH  094%=      5-min Rain = 0
KTAS 170910Z 24004KT 02/02 A2997 RMK A01 T00240015  RH  094%=      5-min Rain = 0
KTAS 170911Z 24004KT 02/02 A2997 RMK A01 T00240015  RH  094%=      5-min Rain = 0
KTAS 170912Z 24004KT 02/02 A2996 RMK A01 T00240015  RH  094%=      5-min Rain = 0
KTAS 170913Z 24004KT 02/02 A2996 RMK A01 T00240016  RH  094%=      5-min Rain = 0
KTAS 170914Z 24005KT 03/02 A2996 RMK A01 T00250017  RH  094%=      5-min Rain = 0
KTAS 170915Z 24004KT 03/02 A2996 RMK A01 T00250017  RH  094%=      5-min Rain = 0
KTAS 170916Z 24004KT 02/02 A2996 RMK A01 T00240016  RH  094%=      5-min Rain = 0
KTAS 170917Z 24004KT 02/01 A2996 RMK A01 T00230014  RH  094%=      5-min Rain = 0
KTAS 170918Z 24004KT 02/01 A2996 RMK A01 T00230014  RH  094%=      5-min Rain = 0
KTAS 170919Z 24004KT 02/01 A2996 RMK A01 T00230014  RH  094%=      5-min Rain = 0
KTAS 170920Z 24004KT 02/01 A2996 RMK A01 T00220014  RH  094%=      5-min Rain = 0
KTAS 170921Z 24005KT 02/01 A2996 RMK A01 T00230014  RH  094%=      5-min Rain = 0
KTAS 170922Z 24005KT 02/02 A2996 RMK A01 T00230016  RH  095%=      5-min Rain = 0
KTAS 170923Z 24005KT 02/02 A2996 RMK A01 T00240016  RH  095%=      5-min Rain = 0
KTAS 170924Z 24005KT 02/02 A2996 RMK A01 T00240016  RH  095%=      5-min Rain = 0
KTAS 170925Z 25005KT 02/02 A2996 RMK A01 T00230016  RH  095%=      5-min Rain = 0
KTAS 170926Z 25005KT 02/01 A2996 RMK A01 T00230014  RH  094%=      5-min Rain = 0
KTAS 170927Z 26004KT 02/01 A2997 RMK A01 T00220014  RH  094%=      5-min Rain = 0
KTAS 170928Z 26004KT 02/01 A2997 RMK A01 T00210013  RH  094%=      5-min Rain = 0
KTAS 170929Z 26005KT 02/01 A2997 RMK A01 T00210013  RH  094%=      5-min Rain = 0
KTAS 170930Z 26005KT 02/01 A2997 RMK A01 T00210013  RH  094%=      5-min Rain = 0
KTAS 170931Z 26004KT 02/01 A2997 RMK A01 T00200012  RH  094%=      5-min Rain = 0
KTAS 170932Z 26005KT 02/01 A2997 RMK A01 T00200013  RH  095%=      5-min Rain = 0
KTAS 170933Z 26004KT 02/01 A2997 RMK A01 T00210013  RH  095%=      5-min Rain = 0
KTAS 170934Z 26004KT 02/01 A2996 RMK A01 T00210013  RH  095%=      5-min Rain = 0
KTAS 170935Z 26005KT 02/01 A2996 RMK A01 T00220014  RH  095%=      5-min Rain = 0
KTAS 170936Z 26004KT 02/02 A2996 RMK A01 T00230016  RH  095%=      5-min Rain = 0
KTAS 170937Z 26004KT 02/02 A2996 RMK A01 T00230016  RH  095%=      5-min Rain = 0
KTAS 170938Z 26004KT 02/02 A2996 RMK A01 T00230016  RH  095%=      5-min Rain = 0
KTAS 170939Z 26004KT 02/02 A2996 RMK A01 T00230016  RH  095%=      5-min Rain = 0
KTAS 170940Z 26004KT 02/02 A2996 RMK A01 T00230016  RH  095%=      5-min Rain = 0
KTAS 170941Z 27004KT 02/02 A2996 RMK A01 T00240017  RH  095%=      5-min Rain = 0
KTAS 170942Z 27004KT 02/02 A2996 RMK A01 T00240017  RH  095%=      5-min Rain = 0
KTAS 170943Z 27004KT 02/02 A2996 RMK A01 T00240016  RH  095%=      5-min Rain = 0
KTAS 170944Z 27005KT 02/02 A2997 RMK A01 T00230016  RH  095%=      5-min Rain = 0
KTAS 170945Z 27005KT 02/02 A2997 RMK A01 T00230016  RH  095%=      5-min Rain = 0
KTAS 170946Z 27005KT 02/02 A2997 RMK A01 T00230016  RH  095%=      5-min Rain = 0
KTAS 170947Z 27005KT 02/02 A2997 RMK A01 T00230016  RH  095%=      5-min Rain = 0
KTAS 170948Z 28005KT 02/02 A2997 RMK A01 T00220015  RH  095%=      5-min Rain = 0
KTAS 170949Z 28004KT 02/01 A2997 RMK A01 T00220014  RH  095%=      5-min Rain = 0
KTAS 170950Z 28004KT 02/01 A2997 RMK A01 T00210014  RH  095%=      5-min Rain = 0
KTAS 170951Z 28004KT 02/01 A2997 RMK A01 T00210013  RH  095%=      5-min Rain = 0
KTAS 170952Z 28004KT 02/01 A2997 RMK A01 T00210013  RH  095%=      5-min Rain = 0
KTAS 170953Z 28004KT 02/01 A2997 RMK A01 T00210014  RH  095%=      5-min Rain = 0
KTAS 170954Z 28004KT 02/02 A2997 RMK A01 T00220015  RH  095%=      5-min Rain = 0
KTAS 170955Z 28004KT 02/02 A2997 RMK A01 T00220015  RH  095%=      5-min Rain = 0
KTAS 170956Z 28004KT 02/02 A2997 RMK A01 T00220015  RH  095%=      5-min Rain = 0
KTAS 170957Z 28005KT 02/02 A2997 RMK A01 T00230015  RH  095%=      5-min Rain = 0
KTAS 170958Z 28005KT 02/02 A2997 RMK A01 T00230015  RH  095%=      5-min Rain = 0
KTAS 170959Z 29005KT 02/02 A2997 RMK A01 T00230015  RH  095%=      5-min Rain = 0
KTAS 171000Z 29005KT 02/02 A2997 RMK A01 T00220015  RH  095%=      5-min Rain = 0
KTAS 171001Z 29005KT 02/02 A2997 RMK A01 T00220015  RH  095%=      5-min Rain = 0
KTAS 171002Z 30006KT 02/01 A2998 RMK A01 T00220014  RH  095%=      5-min Rain = 0
KTAS 171003Z 30007KT 02/01 A2998 RMK A01 T00220014  RH  095%=      5-min Rain = 0
KTAS 171004Z 31007KT 02/02 A2998 RMK A01 T00220015  RH  095%=      5-min Rain = 0
KTAS 171005Z 31008KT 02/01 A2998 RMK A01 T00210014  RH  095%=      5-min Rain = 0
KTAS 171006Z 32007KT 02/01 A2998 RMK A01 T00210013  RH  095%=      5-min Rain = 0
KTAS 171007Z 32007KT 02/01 A2998 RMK A01 T00200012  RH  094%=      5-min Rain = 0
KTAS 171008Z 32007KT 02/01 A2998 RMK A01 T00200012  RH  094%=      5-min Rain = 0
KTAS 171009Z 32007KT 02/01 A2998 RMK A01 T00200012  RH  094%=      5-min Rain = 0
KTAS 171010Z 32007KT 02/01 A2998 RMK A01 T00200012  RH  094%=      5-min Rain = 0
KTAS 171011Z 32007KT 02/01 A2998 RMK A01 T00210013  RH  094%=      5-min Rain = 0
KTAS 171012Z 33008KT 02/01 A2998 RMK A01 T00220014  RH  094%=      5-min Rain = 0
KTAS 171013Z 33008KT 02/01 A2999 RMK A01 T00230013  RH  093%=      5-min Rain = 0
KTAS 171014Z 33008KT 02/01 A2999 RMK A01 T00230013  RH  093%=      5-min Rain = 0
KTAS 171015Z 34009KT 03/01 A2999 RMK A01 T00250014  RH  092%=      5-min Rain = 0
KTAS 171016Z 34009KT 03/02 A2999 RMK A01 T00280015  RH  092%=      5-min Rain = 0
KTAS 171017Z 34010KT 03/02 A2999 RMK A01 T00310017  RH  091%=      5-min Rain = 0
KTAS 171018Z 34010KT 04/02 A2999 RMK A01 T00360021  RH  090%=      5-min Rain = 0
KTAS 171019Z 35010G16KT 04/02 A2999 RMK A01 T00410023  RH  088%=      5-min Rain = 0
KTAS 171020Z 35009KT 04/02 A2999 RMK A01 T00440022  RH  086%=      5-min Rain = 0
KTAS 171021Z 35011KT 05/02 A2999 RMK A01 T00460022  RH  084%=      5-min Rain = 0
KTAS 171022Z 35014G19KT 05/02 A2999 RMK A01 T00490022  RH  083%=      5-min Rain = 0
KTAS 171023Z 35013G18KT 05/02 A2999 RMK A01 T00530023  RH  081%=      5-min Rain = 0
KTAS 171024Z 35014KT 06/02 A2999 RMK A01 T00550023  RH  080%=      5-min Rain = 0
KTAS 171025Z 36013KT 06/02 A2999 RMK A01 T00570023  RH  079%=      5-min Rain = 0
KTAS 171026Z 36014KT 06/02 A2999 RMK A01 T00590023  RH  078%=      5-min Rain = 0
KTAS 171027Z 35015G20KT 06/02 A2999 RMK A01 T00600023  RH  077%=      5-min Rain = 0
KTAS 171028Z 36015KT 06/02 A2999 RMK A01 T00610023  RH  077%=      5-min Rain = 0
KTAS 171029Z 36016G21KT 06/02 A30 RMK A01 T00620023  RH  076%=      5-min Rain = 0
KTAS 171030Z 36017KT 06/02 A30 RMK A01 T00630023  RH  075%=      5-min Rain = 0
KTAS 171031Z 36016KT 06/02 A30 RMK A01 T00630022  RH  075%=      5-min Rain = 0
KTAS 171032Z 36017KT 06/02 A30 RMK A01 T00640021  RH  074%=      5-min Rain = 0
KTAS 171033Z 00016KT 06/02 A30 RMK A01 T00640021  RH  074%=      5-min Rain = 0
KTAS 171034Z 36017G22KT 06/02 A30 RMK A01 T00640021  RH  074%=      5-min Rain = 0
KTAS 171035Z 36018KT 07/02 A30 RMK A01 T00660020  RH  073%=      5-min Rain = 0
KTAS 171036Z 36018G24KT 07/02 A30 RMK A01 T00660020  RH  072%=      5-min Rain = 0
KTAS 171037Z 01020KT 07/02 A3001 RMK A01 T00670019  RH  072%=      5-min Rain = 0
KTAS 171038Z 00020KT 07/02 A3001 RMK A01 T00680019  RH  071%=      5-min Rain = 0
KTAS 171039Z 01020G25KT 07/02 A3001 RMK A01 T00690019  RH  070%=      5-min Rain = 0
KTAS 171040Z 01020KT 07/02 A30 RMK A01 T00710018  RH  069%=      5-min Rain = 0
KTAS 171041Z 01019KT 07/02 A3001 RMK A01 T00720018  RH  069%=      5-min Rain = 0
KTAS 171042Z 01017KT 07/02 A3001 RMK A01 T00720018  RH  068%=      5-min Rain = 0
KTAS 171043Z 00019KT 07/02 A3001 RMK A01 T00710017  RH  069%=      5-min Rain = 0
KTAS 171044Z 01021KT 07/02 A3001 RMK A01 T00720017  RH  068%=      5-min Rain = 0
KTAS 171045Z 01018KT 07/02 A3001 RMK A01 T00730016  RH  067%=      5-min Rain = 0
KTAS 171046Z 00019KT 07/02 A3001 RMK A01 T00730016  RH  067%=      5-min Rain = 0
KTAS 171047Z 00017G22KT 07/02 A3001 RMK A01 T00730016  RH  067%=      5-min Rain = 0
KTAS 171048Z 01017KT 07/02 A3002 RMK A01 T00720016  RH  067%=      5-min Rain = 0
KTAS 171049Z 01018KT 07/02 A3002 RMK A01 T00720015  RH  067%=      5-min Rain = 0
KTAS 171050Z 01018KT 07/02 A3002 RMK A01 T00720015  RH  067%=      5-min Rain = 0
KTAS 171051Z 01015KT 07/02 A3002 RMK A01 T00710015  RH  067%=      5-min Rain = 0
KTAS 171052Z 01016KT 07/02 A3002 RMK A01 T00710015  RH  068%=      5-min Rain = 0
KTAS 171053Z 01015KT 07/02 A3002 RMK A01 T00710015  RH  068%=      5-min Rain = 0
KTAS 171054Z 01016KT 07/02 A3002 RMK A01 T00700015  RH  068%=      5-min Rain = 0
KTAS 171055Z 01015KT 07/01 A3002 RMK A01 T00690014  RH  068%=      5-min Rain = 0
KTAS 171056Z 01014KT 07/01 A3002 RMK A01 T00690014  RH  068%=      5-min Rain = 0
KTAS 171057Z 01016KT 07/01 A3003 RMK A01 T00690014  RH  068%=      5-min Rain = 0
KTAS 171058Z 01016KT 07/01 A3003 RMK A01 T00690014  RH  068%=      5-min Rain = 0
KTAS 171059Z 01015KT 07/01 A3003 RMK A01 T00690014  RH  068%=      5-min Rain = 0
KTAS 171100Z 01015KT 07/01 A3003 RMK A01 T00690013  RH  068%=      5-min Rain = 0
KTAS 171101Z 01014KT 07/01 A3003 RMK A01 T00680013  RH  068%=      5-min Rain = 0
KTAS 171102Z 01014KT 07/01 A3003 RMK A01 T00680013  RH  068%=      5-min Rain = 0
KTAS 171103Z 01014KT 07/01 A3003 RMK A01 T00680012  RH  068%=      5-min Rain = 0
KTAS 171104Z 01014KT 07/01 A3003 RMK A01 T00670012  RH  068%=      5-min Rain = 0
KTAS 171105Z 01014KT 07/01 A3003 RMK A01 T00670012  RH  068%=      5-min Rain = 0
KTAS 171106Z 01014G19KT 07/01 A3003 RMK A01 T00670012  RH  068%=      5-min Rain = 0
KTAS 171107Z 01013KT 07/01 A3003 RMK A01 T00670012  RH  068%=      5-min Rain = 0
KTAS 171108Z 01014KT 07/01 A3003 RMK A01 T00660012  RH  068%=      5-min Rain = 0
KTAS 171109Z 01013KT 07/01 A3003 RMK A01 T00660012  RH  068%=      5-min Rain = 0
KTAS 171110Z 01013KT 07/01 A3003 RMK A01 T00660012  RH  068%=      5-min Rain = 0
KTAS 171111Z 01013KT 07/01 A3003 RMK A01 T00660011  RH  068%=      5-min Rain = 0
KTAS 171112Z 01013G19KT 07/01 A3003 RMK A01 T00650011  RH  068%=      5-min Rain = 0
KTAS 171113Z 01013KT 07/01 A3003 RMK A01 T00650011  RH  068%=      5-min Rain = 0
KTAS 171114Z 01014KT 07/01 A3003 RMK A01 T00650011  RH  068%=      5-min Rain = 0
KTAS 171115Z 01014KT 07/01 A3003 RMK A01 T00660011  RH  068%=      5-min Rain = 0
KTAS 171116Z 01012KT 07/01 A3002 RMK A01 T00660010  RH  068%=      5-min Rain = 0
KTAS 171117Z 02012KT 07/01 A3002 RMK A01 T00660010  RH  068%=      5-min Rain = 0
KTAS 171118Z 01012KT 07/01 A3002 RMK A01 T00660010  RH  068%=      5-min Rain = 0
KTAS 171119Z 01013KT 07/01 A3002 RMK A01 T00660010  RH  067%=      5-min Rain = 0
KTAS 171120Z 02012KT 07/01 A3002 RMK A01 T00650010  RH  067%=      5-min Rain = 0
KTAS 171121Z 02013KT 07/01 A3002 RMK A01 T00650009  RH  067%=      5-min Rain = 0
KTAS 171122Z 01013KT 07/01 A3002 RMK A01 T00660009  RH  067%=      5-min Rain = 0
KTAS 171123Z 01013KT 07/01 A3002 RMK A01 T00650009  RH  067%=      5-min Rain = 0
KTAS 171124Z 02012KT 07/01 A3002 RMK A01 T00650009  RH  067%=      5-min Rain = 0
KTAS 171125Z 02012KT 07/01 A3002 RMK A01 T00650009  RH  067%=      5-min Rain = 0
KTAS 171126Z 02011KT 06/01 A3002 RMK A01 T00640008  RH  068%=      5-min Rain = 0
KTAS 171127Z 02011KT 06/01 A3002 RMK A01 T00630008  RH  068%=      5-min Rain = 0
KTAS 171128Z 02012KT 06/01 A3002 RMK A01 T00630008  RH  068%=      5-min Rain = 0
KTAS 171129Z 01011KT 06/01 A3002 RMK A01 T00630008  RH  068%=      5-min Rain = 0
KTAS 171130Z 01012KT 06/01 A3003 RMK A01 T00630008  RH  068%=      5-min Rain = 0
KTAS 171131Z 01012KT 06/01 A3003 RMK A01 T00630008  RH  068%=      5-min Rain = 0
KTAS 171132Z 01012KT 06/01 A3003 RMK A01 T00630008  RH  068%=      5-min Rain = 0
KTAS 171133Z 01012KT 06/01 A3003 RMK A01 T00630008  RH  068%=      5-min Rain = 0
KTAS 171134Z 01013KT 06/01 A3003 RMK A01 T00630008  RH  068%=      5-min Rain = 0
KTAS 171135Z 01013KT 06/01 A3003 RMK A01 T00630008  RH  068%=      5-min Rain = 0
KTAS 171136Z 01012KT 06/01 A3003 RMK A01 T00640008  RH  067%=      5-min Rain = 0
KTAS 171137Z 01011KT 06/01 A3003 RMK A01 T00630007  RH  067%=      5-min Rain = 0
KTAS 171138Z 01011KT 06/01 A3004 RMK A01 T00630007  RH  067%=      5-min Rain = 0
KTAS 171139Z 01012KT 06/01 A3004 RMK A01 T00630007  RH  067%=      5-min Rain = 0
KTAS 171140Z 01013KT 06/01 A3004 RMK A01 T00630007  RH  067%=      5-min Rain = 0
KTAS 171141Z 01013KT 06/01 A3004 RMK A01 T00630006  RH  067%=      5-min Rain = 0
KTAS 171142Z 01011KT 06/01 A3004 RMK A01 T00630006  RH  067%=      5-min Rain = 0
KTAS 171143Z 01011KT 06/01 A3004 RMK A01 T00630006  RH  067%=      5-min Rain = 0
KTAS 171144Z 01012KT 06/01 A3004 RMK A01 T00630006  RH  067%=      5-min Rain = 0
KTAS 171145Z 01013KT 06/01 A3004 RMK A01 T00630006  RH  067%=      5-min Rain = 0
KTAS 171146Z 01011KT 06/01 A3004 RMK A01 T00630006  RH  066%=      5-min Rain = 0
KTAS 171147Z 01013KT 06/01 A3004 RMK A01 T00630005  RH  066%=      5-min Rain = 0
KTAS 171148Z 01014KT 06/01 A3004 RMK A01 T00630005  RH  067%=      5-min Rain = 0
KTAS 171149Z 01012KT 06/01 A3004 RMK A01 T00630005  RH  066%=      5-min Rain = 0
KTAS 171150Z 01012KT 06/01 A3004 RMK A01 T00620005  RH  067%=      5-min Rain = 0
KTAS 171151Z 01014KT 06/01 A3004 RMK A01 T00620005  RH  067%=      5-min Rain = 0
KTAS 171152Z 01014KT 06/00 A3005 RMK A01 T00630004  RH  066%=      5-min Rain = 0
KTAS 171153Z 01013KT 06/00 A3005 RMK A01 T00630004  RH  066%=      5-min Rain = 0
KTAS 171154Z 01012KT 06/00 A3005 RMK A01 T00620004  RH  066%=      5-min Rain = 0
KTAS 171155Z 01012KT 06/00 A3005 RMK A01 T00620004  RH  066%=      5-min Rain = 0
KTAS 171156Z 01011KT 06/00 A3005 RMK A01 T00620003  RH  066%=      5-min Rain = 0
KTAS 171157Z 01012KT 06/00 A3005 RMK A01 T00620003  RH  066%=      5-min Rain = 0
KTAS 171158Z 01012KT 06/00 A3005 RMK A01 T00620003  RH  066%=      5-min Rain = 0
KTAS 171159Z 01013KT 06/00 A3005 RMK A01 T00610003  RH  066%=      5-min Rain = 0
KTAS 171200Z 01011G18KT 06/00 A3005 RMK A01 T00620003  RH  066%=      5-min Rain = 0
KTAS 171201Z 01012KT 06/00 A3005 RMK A01 T00620002  RH  065%=      5-min Rain = 0
KTAS 171202Z 01012KT 06/00 A3005 RMK A01 T00620002  RH  065%=      5-min Rain = 0
KTAS 171203Z 01011KT 06/00 A3005 RMK A01 T00630002  RH  065%=      5-min Rain = 0
KTAS 171204Z 01011KT 06/00 A3005 RMK A01 T00630001  RH  065%=      5-min Rain = 0
KTAS 171205Z 02013KT 06/00 A3005 RMK A01 T00630001  RH  065%=      5-min Rain = 0
KTAS 171206Z 02012KT 06/00 A3005 RMK A01 T00630001  RH  064%=      5-min Rain = 0
KTAS 171207Z 01011KT 06/00 A3005 RMK A01 T00630001  RH  064%=      5-min Rain = 0
KTAS 171208Z 02012KT 06/00 A3006 RMK A01 T00630001  RH  064%=      5-min Rain = 0
KTAS 171209Z 01010G16KT 06/00 A3006 RMK A01 T00630000  RH  064%=      5-min Rain = 0
KTAS 171210Z 02011KT 06/00 A3005 RMK A01 T00630000  RH  064%=      5-min Rain = 0
KTAS 171211Z 02012KT 06/00 A3006 RMK A01 T00630000  RH  064%=      5-min Rain = 0
KTAS 171212Z 02011KT 06/00 A3006 RMK A01 T00630000  RH  064%=      5-min Rain = 0
KTAS 171213Z 02012KT 06/00 A3006 RMK A01 T00630000  RH  064%=      5-min Rain = 0
KTAS 171214Z 02010KT 06/00 A3006 RMK A01 T00630000  RH  064%=      5-min Rain = 0
KTAS 171215Z 02012KT 06/00 A3006 RMK A01 T006300-0  RH  064%=      5-min Rain = 0
KTAS 171216Z 02012KT 06/00 A3006 RMK A01 T006300-0  RH  064%=      5-min Rain = 0
KTAS 171217Z 02010KT 06/00 A3006 RMK A01 T006200-0  RH  064%=      5-min Rain = 0
KTAS 171218Z 02012KT 06/00 A3006 RMK A01 T006200-0  RH  064%=      5-min Rain = 0
KTAS 171219Z 02010KT 06/00 A3006 RMK A01 T006300-0  RH  064%=      5-min Rain = 0
KTAS 171220Z 02010KT 06/00 A3006 RMK A01 T006300-0  RH  064%=      5-min Rain = 0
KTAS 171221Z 02011KT 06/00 A3006 RMK A01 T006200-0  RH  064%=      5-min Rain = 0
KTAS 171222Z 02012KT 06/00 A3006 RMK A01 T006300-0  RH  064%=      5-min Rain = 0
KTAS 171223Z 02011KT 06/00 A3006 RMK A01 T006300-0  RH  064%=      5-min Rain = 0
KTAS 171224Z 02011KT 06/00 A3006 RMK A01 T006300-0  RH  064%=      5-min Rain = 0
KTAS 171225Z 02012KT 06/M00 A3006 RMK A01 T00631001  RH  064%=      5-min Rain = 0
KTAS 171226Z 02013KT 06/00 A3006 RMK A01 T006400-0  RH  064%=      5-min Rain = 0
KTAS 171227Z 02012KT 06/00 A3006 RMK A01 T006400-0  RH  063%=      5-min Rain = 0
KTAS 171228Z 01013KT 06/M00 A3007 RMK A01 T00641001  RH  063%=      5-min Rain = 0
KTAS 171229Z 01012KT 06/M00 A3007 RMK A01 T00641001  RH  063%=      5-min Rain = 0
KTAS 171230Z 01012KT 06/M00 A3007 RMK A01 T00631001  RH  063%=      5-min Rain = 0
KTAS 171231Z 02012KT 06/M00 A3007 RMK A01 T00631001  RH  063%=      5-min Rain = 0
KTAS 171232Z 01013KT 06/M00 A3007 RMK A01 T00631001  RH  063%=      5-min Rain = 0
KTAS 171233Z 01012KT 06/M00 A3007 RMK A01 T00641001  RH  063%=      5-min Rain = 0
KTAS 171234Z 01011KT 06/M00 A3007 RMK A01 T00641001  RH  063%=      5-min Rain = 0
KTAS 171235Z 01013KT 06/M00 A3007 RMK A01 T00641001  RH  063%=      5-min Rain = 0
KTAS 171236Z 01013KT 06/M00 A3007 RMK A01 T00641001  RH  063%=      5-min Rain = 0
KTAS 171237Z 01015KT 07/M00 A3007 RMK A01 T00651001  RH  063%=      5-min Rain = 0
KTAS 171238Z 01013KT 07/M00 A3007 RMK A01 T00651001  RH  063%=      5-min Rain = 0
KTAS 171239Z 01013KT 07/M00 A3007 RMK A01 T00651001  RH  063%=      5-min Rain = 0
KTAS 171240Z 01012KT 06/M00 A3007 RMK A01 T00641001  RH  063%=      5-min Rain = 0
KTAS 171241Z 01013KT 06/M00 A3007 RMK A01 T00641001  RH  063%=      5-min Rain = 0
KTAS 171242Z 01012KT 06/M00 A3007 RMK A01 T00631001  RH  063%=      5-min Rain = 0
KTAS 171243Z 01013KT 06/M00 A3007 RMK A01 T00631001  RH  063%=      5-min Rain = 0
KTAS 171244Z 01013KT 06/M00 A3008 RMK A01 T00631001  RH  063%=      5-min Rain = 0
KTAS 171245Z 01011KT 06/M00 A3008 RMK A01 T00631001  RH  064%=      5-min Rain = 0
KTAS 171246Z 01012KT 06/M00 A3008 RMK A01 T00621001  RH  064%=      5-min Rain = 0
KTAS 171247Z 01011KT 06/M00 A3008 RMK A01 T00621001  RH  064%=      5-min Rain = 0
KTAS 171248Z 01012KT 06/M00 A3008 RMK A01 T00621001  RH  064%=      5-min Rain = 0
KTAS 171249Z 01013KT 06/M00 A3008 RMK A01 T00611001  RH  064%=      5-min Rain = 0
KTAS 171250Z 01012KT 06/M00 A3008 RMK A01 T00611001  RH  064%=      5-min Rain = 0
KTAS 171251Z 01012KT 06/M00 A3008 RMK A01 T00611001  RH  064%=      5-min Rain = 0
KTAS 171252Z 01012KT 06/M00 A3008 RMK A01 T00611001  RH  065%=      5-min Rain = 0
KTAS 171253Z 01012KT 06/M00 A3009 RMK A01 T00601001  RH  065%=      5-min Rain = 0
KTAS 171254Z 01011G17KT 06/M00 A3009 RMK A01 T00601001  RH  065%=      5-min Rain = 0
KTAS 171255Z 01012KT 06/M00 A3009 RMK A01 T00601001  RH  065%=      5-min Rain = 0
KTAS 171256Z 01011KT 06/M00 A3009 RMK A01 T00591001  RH  065%=      5-min Rain = 0
KTAS 171257Z 01013KT 06/M00 A3009 RMK A01 T00591001  RH  065%=      5-min Rain = 0
KTAS 171258Z 01013KT 06/M00 A3009 RMK A01 T00591001  RH  065%=      5-min Rain = 0
KTAS 171259Z 01013KT 06/M00 A3009 RMK A01 T00601001  RH  065%=      5-min Rain = 0
KTAS 171300Z 01013KT 06/M00 A3009 RMK A01 T00611001  RH  065%=      5-min Rain = 0
KTAS 171301Z 01013KT 06/M00 A3009 RMK A01 T00611001  RH  065%=      5-min Rain = 0
KTAS 171302Z 01012KT 06/M00 A3009 RMK A01 T00611001  RH  065%=      5-min Rain = 0
KTAS 171303Z 01014KT 06/M00 A3009 RMK A01 T00601001  RH  065%=      5-min Rain = 0
KTAS 171304Z 01014KT 06/M00 A3009 RMK A01 T00611001  RH  065%=      5-min Rain = 0
KTAS 171305Z 01012KT 06/M00 A301 RMK A01 T00611001  RH  065%=      5-min Rain = 0
KTAS 171306Z 01012KT 06/M00 A301 RMK A01 T00611001  RH  065%=      5-min Rain = 0
KTAS 171307Z 01013KT 06/M00 A301 RMK A01 T00601001  RH  065%=      5-min Rain = 0
KTAS 171308Z 01013KT 06/M00 A301 RMK A01 T00601001  RH  065%=      5-min Rain = 0
KTAS 171309Z 01012KT 06/M00 A301 RMK A01 T00601001  RH  065%=      5-min Rain = 0
KTAS 171310Z 01013KT 06/M00 A301 RMK A01 T00591001  RH  065%=      5-min Rain = 0
KTAS 171311Z 01013KT 06/M00 A301 RMK A01 T00591001  RH  065%=      5-min Rain = 0
KTAS 171312Z 01014KT 06/M00 A301 RMK A01 T00601001  RH  065%=      5-min Rain = 0
KTAS 171313Z 01013KT 06/M00 A301 RMK A01 T00601001  RH  065%=      5-min Rain = 0
KTAS 171314Z 00013KT 06/M00 A301 RMK A01 T00611001  RH  065%=      5-min Rain = 0
KTAS 171315Z 01014G19KT 06/00 A301 RMK A01 T006100-0  RH  065%=      5-min Rain = 0
KTAS 171316Z 01013KT 06/00 A3011 RMK A01 T006100-0  RH  065%=      5-min Rain = 0
KTAS 171317Z 01016KT 06/00 A3011 RMK A01 T006100-0  RH  065%=      5-min Rain = 0
KTAS 171318Z 01014KT 06/00 A3011 RMK A01 T006200-0  RH  064%=      5-min Rain = 0
KTAS 171319Z 01015KT 06/00 A3011 RMK A01 T006100-0  RH  064%=      5-min Rain = 0
KTAS 171320Z 01016KT 06/00 A3011 RMK A01 T00630000  RH  064%=      5-min Rain = 0
KTAS 171321Z 01018KT 06/00 A3011 RMK A01 T00640000  RH  064%=      5-min Rain = 0
KTAS 171322Z 01016KT 07/00 A3011 RMK A01 T00650000  RH  063%=      5-min Rain = 0
KTAS 171323Z 01018G24KT 07/00 A3011 RMK A01 T00650001  RH  063%=      5-min Rain = 0
KTAS 171324Z 01016KT 07/00 A3011 RMK A01 T00660001  RH  063%=      5-min Rain = 0
KTAS 171325Z 01015G21KT 07/00 A3012 RMK A01 T00670001  RH  063%=      5-min Rain = 0
KTAS 171326Z 01015G21KT 07/00 A3012 RMK A01 T00660001  RH  063%=      5-min Rain = 0
KTAS 171327Z 01015KT 07/00 A3012 RMK A01 T00660001  RH  063%=      5-min Rain = 0
KTAS 171328Z 01013KT 07/00 A3012 RMK A01 T00650001  RH  063%=      5-min Rain = 0
KTAS 171329Z 01015G20KT 07/00 A3012 RMK A01 T00650001  RH  063%=      5-min Rain = 0
KTAS 171330Z 01015KT 07/00 A3012 RMK A01 T00660001  RH  063%=      5-min Rain = 0
KTAS 171331Z 01015KT 07/00 A3012 RMK A01 T00660001  RH  063%=      5-min Rain = 0
KTAS 171332Z 01015KT 07/00 A3012 RMK A01 T00650001  RH  063%=      5-min Rain = 0
KTAS 171333Z 01016KT 07/00 A3012 RMK A01 T00660001  RH  063%=      5-min Rain = 0
KTAS 171334Z 01016G21KT 07/00 A3012 RMK A01 T00660001  RH  063%=      5-min Rain = 0
KTAS 171335Z 01015G20KT 07/00 A3012 RMK A01 T00670001  RH  063%=      5-min Rain = 0
KTAS 171336Z 01016KT 07/00 A3012 RMK A01 T00670002  RH  063%=      5-min Rain = 0
KTAS 171337Z 01014KT 07/00 A3012 RMK A01 T00670002  RH  063%=      5-min Rain = 0
KTAS 171338Z 01015KT 07/00 A3012 RMK A01 T00660001  RH  063%=      5-min Rain = 0
KTAS 171339Z 01014KT 07/00 A3012 RMK A01 T00660002  RH  063%=      5-min Rain = 0
KTAS 171340Z 01015KT 07/00 A3012 RMK A01 T00660002  RH  063%=      5-min Rain = 0
KTAS 171341Z 01014KT 07/00 A3012 RMK A01 T00660002  RH  064%=      5-min Rain = 0
KTAS 171342Z 01014KT 07/00 A3012 RMK A01 T00660002  RH  064%=      5-min Rain = 0
KTAS 171343Z 01015KT 07/00 A3012 RMK A01 T00670002  RH  064%=      5-min Rain = 0
KTAS 171344Z 01019KT 07/00 A3012 RMK A01 T00670003  RH  063%=      5-min Rain = 0
KTAS 171345Z 01017G22KT 07/00 A3012 RMK A01 T00690002  RH  063%=      5-min Rain = 0
KTAS 171346Z 01017G22KT 07/00 A3013 RMK A01 T00700003  RH  062%=      5-min Rain = 0
KTAS 171347Z 01015KT 07/00 A3013 RMK A01 T00700003  RH  062%=      5-min Rain = 0
KTAS 171348Z 01016KT 07/00 A3013 RMK A01 T00690003  RH  063%=      5-min Rain = 0
KTAS 171349Z 01014G19KT 07/00 A3013 RMK A01 T00690003  RH  063%=      5-min Rain = 0
KTAS 171350Z 01017KT 07/00 A3013 RMK A01 T00690003  RH  063%=      5-min Rain = 0
KTAS 171351Z 00014KT 07/00 A3013 RMK A01 T00690003  RH  063%=      5-min Rain = 0
KTAS 171352Z 01015KT 07/00 A3013 RMK A01 T00690003  RH  063%=      5-min Rain = 0
KTAS 171353Z 01015KT 07/00 A3013 RMK A01 T00700004  RH  063%=      5-min Rain = 0
KTAS 171354Z 01015KT 07/00 A3013 RMK A01 T00700004  RH  063%=      5-min Rain = 0
KTAS 171355Z 01016G21KT 07/00 A3013 RMK A01 T00700004  RH  063%=      5-min Rain = 0
KTAS 171356Z 01017KT 07/00 A3013 RMK A01 T00710004  RH  062%=      5-min Rain = 0
KTAS 171357Z 01017KT 07/00 A3013 RMK A01 T00710004  RH  062%=      5-min Rain = 0
KTAS 171358Z 01015KT 07/00 A3013 RMK A01 T00710004  RH  062%=      5-min Rain = 0
KTAS 171359Z 01017KT 07/00 A3013 RMK A01 T00720004  RH  062%=      5-min Rain = 0
KTAS 171400Z 01016KT 07/00 A3013 RMK A01 T00720004  RH  062%=      5-min Rain = 0
KTAS 171401Z 01015KT 07/01 A3013 RMK A01 T00730005  RH  062%=      5-min Rain = 0
KTAS 171402Z 01016KT 07/01 A3014 RMK A01 T00730005  RH  062%=      5-min Rain = 0
KTAS 171403Z 01014KT 07/01 A3014 RMK A01 T00720005  RH  062%=      5-min Rain = 0
KTAS 171404Z 01016KT 07/01 A3014 RMK A01 T00730005  RH  062%=      5-min Rain = 0
KTAS 171405Z 01015KT 07/01 A3014 RMK A01 T00730005  RH  062%=      5-min Rain = 0
KTAS 171406Z 01014KT 07/01 A3014 RMK A01 T00730005  RH  062%=      5-min Rain = 0
KTAS 171407Z 01017KT 07/01 A3014 RMK A01 T00730005  RH  062%=      5-min Rain = 0
KTAS 171408Z 01017KT 07/01 A3014 RMK A01 T00730005  RH  062%=      5-min Rain = 0
KTAS 171409Z 01017KT 07/01 A3014 RMK A01 T00740006  RH  062%=      5-min Rain = 0
KTAS 171410Z 01015KT 07/01 A3014 RMK A01 T00740006  RH  062%=      5-min Rain = 0
KTAS 171411Z 01013KT 07/01 A3014 RMK A01 T00740006  RH  062%=      5-min Rain = 0
KTAS 171412Z 01013G19KT 07/01 A3014 RMK A01 T00740006  RH  062%=      5-min Rain = 0
KTAS 171413Z 01015KT 07/01 A3014 RMK A01 T00740007  RH  062%=      5-min Rain = 0
KTAS 171414Z 01015KT 08/01 A3014 RMK A01 T00750007  RH  062%=      5-min Rain = 0
KTAS 171415Z 01017KT 08/01 A3014 RMK A01 T00750007  RH  062%=      5-min Rain = 0
KTAS 171416Z 01017KT 08/01 A3014 RMK A01 T00750007  RH  062%=      5-min Rain = 0
KTAS 171417Z 02017KT 08/01 A3014 RMK A01 T00750007  RH  062%=      5-min Rain = 0
KTAS 171418Z 01013KT 08/01 A3015 RMK A01 T00750008  RH  062%=      5-min Rain = 0
KTAS 171419Z 01012KT 08/01 A3015 RMK A01 T00760008  RH  062%=      5-min Rain = 0
KTAS 171420Z 01014KT 08/01 A3015 RMK A01 T00760008  RH  062%=      5-min Rain = 0
KTAS 171421Z 01017KT 08/01 A3015 RMK A01 T00760008  RH  062%=      5-min Rain = 0
KTAS 171422Z 01014KT 08/01 A3015 RMK A01 T00760008  RH  062%=      5-min Rain = 0
KTAS 171423Z 01016KT 08/01 A3015 RMK A01 T00770008  RH  062%=      5-min Rain = 0
KTAS 171424Z 01015KT 08/01 A3015 RMK A01 T00770008  RH  062%=      5-min Rain = 0
KTAS 171425Z 01015KT 08/01 A3015 RMK A01 T00780009  RH  062%=      5-min Rain = 0
KTAS 171426Z 01015KT 08/01 A3015 RMK A01 T00780009  RH  061%=      5-min Rain = 0
KTAS 171427Z 01014KT 08/01 A3015 RMK A01 T00780009  RH  061%=      5-min Rain = 0
KTAS 171428Z 01016KT 08/01 A3015 RMK A01 T00790009  RH  061%=      5-min Rain = 0
KTAS 171429Z 02017KT 08/01 A3015 RMK A01 T00790009  RH  061%=      5-min Rain = 0
KTAS 171430Z 01014KT 08/01 A3015 RMK A01 T00790009  RH  061%=      5-min Rain = 0
KTAS 171431Z 01013KT 08/01 A3015 RMK A01 T00800009  RH  061%=      5-min Rain = 0
KTAS 171432Z 01014KT 08/01 A3015 RMK A01 T00810010  RH  061%=      5-min Rain = 0
KTAS 171433Z 01012G18KT 08/01 A3015 RMK A01 T00810011  RH  061%=      5-min Rain = 0
KTAS 171434Z 01018G24KT 08/01 A3015 RMK A01 T00820010  RH  061%=      5-min Rain = 0
KTAS 171435Z 01017G22KT 08/01 A3015 RMK A01 T00820010  RH  060%=      5-min Rain = 0
KTAS 171436Z 01017KT 08/01 A3016 RMK A01 T00820010  RH  060%=      5-min Rain = 0
KTAS 171437Z 01018KT 08/01 A3015 RMK A01 T00820010  RH  061%=      5-min Rain = 0
KTAS 171438Z 01020KT 08/01 A3016 RMK A01 T00820010  RH  060%=      5-min Rain = 0
KTAS 171439Z 01019KT 08/01 A3016 RMK A01 T00820010  RH  060%=      5-min Rain = 0
KTAS 171440Z 01017KT 08/01 A3016 RMK A01 T00830011  RH  060%=      5-min Rain = 0
KTAS 171441Z 02017G22KT 08/01 A3016 RMK A01 T00830011  RH  060%=      5-min Rain = 0
KTAS 171442Z 02014KT 08/01 A3016 RMK A01 T00840012  RH  060%=      5-min Rain = 0
KTAS 171443Z 01019G24KT 09/01 A3016 RMK A01 T00850012  RH  060%=      5-min Rain = 0
KTAS 171444Z 01021G26KT 09/01 A3016 RMK A01 T00850011  RH  060%=      5-min Rain = 0
KTAS 171445Z 01021KT 08/01 A3016 RMK A01 T00840011  RH  060%=      5-min Rain = 0
KTAS 171446Z 01018KT 08/01 A3016 RMK A01 T00840011  RH  060%=      5-min Rain = 0
KTAS 171447Z 01016G22KT 09/01 A3016 RMK A01 T00850012  RH  060%=      5-min Rain = 0
KTAS 171448Z 01015KT 09/01 A3016 RMK A01 T00860013  RH  060%=      5-min Rain = 0
KTAS 171449Z 01015KT 09/01 A3016 RMK A01 T00870013  RH  060%=      5-min Rain = 0
KTAS 171450Z 02016G21KT 09/01 A3016 RMK A01 T00880013  RH  059%=      5-min Rain = 0
KTAS 171451Z 01013KT 09/01 A3016 RMK A01 T00880014  RH  060%=      5-min Rain = 0
KTAS 171452Z 01014KT 09/01 A3016 RMK A01 T00890014  RH  059%=      5-min Rain = 0
KTAS 171453Z 01014KT 09/01 A3016 RMK A01 T00900014  RH  059%=      5-min Rain = 0
KTAS 171454Z 02019KT 09/01 A3016 RMK A01 T00900014  RH  059%=      5-min Rain = 0
KTAS 171455Z 02017KT 09/01 A3016 RMK A01 T00890013  RH  059%=      5-min Rain = 0
KTAS 171456Z 02015KT 09/01 A3016 RMK A01 T00890014  RH  059%=      5-min Rain = 0
KTAS 171457Z 01017KT 09/01 A3016 RMK A01 T00900014  RH  059%=      5-min Rain = 0
KTAS 171458Z 02018KT 09/01 A3016 RMK A01 T00900014  RH  059%=      5-min Rain = 0
KTAS 171459Z 01018KT 09/01 A3016 RMK A01 T00900014  RH  059%=      5-min Rain = 0
KTAS 171500Z 01017KT 09/01 A3016 RMK A01 T00910014  RH  059%=      5-min Rain = 0
KTAS 171501Z 01019KT 09/01 A3016 RMK A01 T00910014  RH  058%=      5-min Rain = 0
KTAS 171502Z 02020G25KT 09/01 A3016 RMK A01 T00900013  RH  058%=      5-min Rain = 0
KTAS 171503Z 02024KT 09/01 A3016 RMK A01 T00900013  RH  058%=      5-min Rain = 0
KTAS 171504Z 02021KT 09/01 A3016 RMK A01 T00900013  RH  058%=      5-min Rain = 0
KTAS 171505Z 01019KT 09/01 A3016 RMK A01 T00900013  RH  059%=      5-min Rain = 0
KTAS 171506Z 02021KT 09/01 A3016 RMK A01 T00900013  RH  058%=      5-min Rain = 0
KTAS 171507Z 01017KT 09/01 A3016 RMK A01 T00910014  RH  058%=      5-min Rain = 0
KTAS 171508Z 01020KT 09/02 A3016 RMK A01 T00920015  RH  058%=      5-min Rain = 0
KTAS 171509Z 01020G26KT 09/01 A3016 RMK A01 T00920014  RH  058%=      5-min Rain = 0
KTAS 171510Z 01020G26KT 09/01 A3016 RMK A01 T00920013  RH  058%=      5-min Rain = 0
KTAS 171511Z 01020KT 09/01 A3016 RMK A01 T00920014  RH  058%=      5-min Rain = 0
KTAS 171512Z 02021KT 09/01 A3016 RMK A01 T00920014  RH  058%=      5-min Rain = 0
KTAS 171513Z 01023KT 09/01 A3016 RMK A01 T00920013  RH  058%=      5-min Rain = 0
KTAS 171514Z 01020G26KT 09/01 A3016 RMK A01 T00930014  RH  058%=      5-min Rain = 0
KTAS 171515Z 01020KT 09/01 A3016 RMK A01 T00930014  RH  058%=      5-min Rain = 0
KTAS 171516Z 02019G24KT 09/02 A3016 RMK A01 T00930015  RH  058%=      5-min Rain = 0
KTAS 171517Z 01021KT 09/01 A3016 RMK A01 T00940014  RH  057%=      5-min Rain = 0
KTAS 171518Z 01017KT 10/02 A3016 RMK A01 T00950015  RH  057%=      5-min Rain = 0
KTAS 171519Z 01016KT 10/02 A3016 RMK A01 T00970016  RH  057%=      5-min Rain = 0
KTAS 171520Z 02019KT 10/02 A3016 RMK A01 T00970016  RH  057%=      5-min Rain = 0
KTAS 171521Z 02018KT 10/02 A3017 RMK A01 T00970016  RH  057%=      5-min Rain = 0
KTAS 171522Z 01019KT 10/02 A3017 RMK A01 T00980016  RH  057%=      5-min Rain = 0
KTAS 171523Z 02020KT 10/02 A3017 RMK A01 T00970015  RH  056%=      5-min Rain = 0
KTAS 171524Z 02019KT 10/02 A3017 RMK A01 T00970015  RH  057%=      5-min Rain = 0
KTAS 171525Z 02015G22KT 10/02 A3017 RMK A01 T00980017  RH  057%=      5-min Rain = 0
KTAS 171526Z 02020KT 10/02 A3017 RMK A01 T00990016  RH  056%=      5-min Rain = 0
KTAS 171527Z 02018KT 10/02 A3017 RMK A01 T00980015  RH  056%=      5-min Rain = 0
KTAS 171528Z 02021KT 10/02 A3017 RMK A01 T00990016  RH  056%=      5-min Rain = 0
KTAS 171529Z 02020KT 10/02 A3017 RMK A01 T00990015  RH  056%=      5-min Rain = 0
KTAS 171530Z 01017KT 10/02 A3017 RMK A01 T00990016  RH  056%=      5-min Rain = 0
KTAS 171531Z 01019G24KT 10/02 A3017 RMK A01 T01000017  RH  056%=      5-min Rain = 0
KTAS 171532Z 01021G27KT 10/02 A3017 RMK A01 T01000016  RH  056%=      5-min Rain = 0
KTAS 171533Z 01021KT 10/02 A3017 RMK A01 T01000016  RH  056%=      5-min Rain = 0
KTAS 171534Z 01020G25KT 10/02 A3017 RMK A01 T01000015  RH  056%=      5-min Rain = 0
KTAS 171535Z 02018KT 10/02 A3017 RMK A01 T01000016  RH  056%=      5-min Rain = 0
KTAS 171536Z 03020KT 10/02 A3017 RMK A01 T01000016  RH  056%=      5-min Rain = 0
KTAS 171537Z 02021KT 10/02 A3017 RMK A01 T01000016  RH  056%=      5-min Rain = 0
KTAS 171538Z 02019KT 10/02 A3017 RMK A01 T01000016  RH  056%=      5-min Rain = 0
KTAS 171539Z 01017KT 10/02 A3017 RMK A01 T01020017  RH  056%=      5-min Rain = 0
KTAS 171540Z 01018KT 10/02 A3017 RMK A01 T01040018  RH  055%=      5-min Rain = 0
KTAS 171541Z 01021G26KT 10/02 A3017 RMK A01 T01020016  RH  055%=      5-min Rain = 0
KTAS 171542Z 01022KT 10/02 A3017 RMK A01 T01020016  RH  055%=      5-min Rain = 0
KTAS 171543Z 01023KT 10/02 A3017 RMK A01 T01010016  RH  055%=      5-min Rain = 0
KTAS 171544Z 02020G26KT 10/02 A3017 RMK A01 T01010016  RH  056%=      5-min Rain = 0
KTAS 171545Z 02020KT 10/02 A3017 RMK A01 T01020017  RH  055%=      5-min Rain = 0
KTAS 171546Z 01021G26KT 10/02 A3017 RMK A01 T01030017  RH  055%=      5-min Rain = 0
KTAS 171547Z 02022KT 10/02 A3017 RMK A01 T01030016  RH  055%=      5-min Rain = 0
KTAS 171548Z 02021KT 10/02 A3017 RMK A01 T01030016  RH  055%=      5-min Rain = 0
KTAS 171549Z 02019KT 10/02 A3017 RMK A01 T01030017  RH  055%=      5-min Rain = 0
KTAS 171550Z 02018KT 11/02 A3017 RMK A01 T01050018  RH  055%=      5-min Rain = 0
KTAS 171551Z 01021KT 11/02 A3017 RMK A01 T01050017  RH  054%=      5-min Rain = 0
KTAS 171552Z 01021KT 11/02 A3017 RMK A01 T01050017  RH  054%=      5-min Rain = 0
KTAS 171553Z 02016KT 11/02 A3017 RMK A01 T01060017  RH  054%=      5-min Rain = 0
KTAS 171554Z 01020KT 11/02 A3017 RMK A01 T01080018  RH  054%=      5-min Rain = 0
KTAS 171555Z 01021KT 11/02 A3017 RMK A01 T01060016  RH  053%=      5-min Rain = 0
KTAS 171556Z 01021KT 11/02 A3017 RMK A01 T01050015  RH  054%=      5-min Rain = 0
KTAS 171557Z 01019KT 11/02 A3017 RMK A01 T01050016  RH  054%=      5-min Rain = 0
KTAS 171558Z 02020G25KT 11/02 A3017 RMK A01 T01070017  RH  054%=      5-min Rain = 0
KTAS 171559Z 01021KT 11/02 A3017 RMK A01 T01060016  RH  054%=      5-min Rain = 0
KTAS 171600Z 01021G27KT 11/02 A3017 RMK A01 T01060016  RH  054%=      5-min Rain = 0
KTAS 171601Z 01020KT 11/02 A3017 RMK A01 T01060015  RH  053%=      5-min Rain = 0
KTAS 171602Z 02020G26KT 11/02 A3017 RMK A01 T01070017  RH  053%=      5-min Rain = 0
KTAS 171603Z 02020G26KT 11/02 A3017 RMK A01 T01080017  RH  053%=      5-min Rain = 0
KTAS 171604Z 02019KT 11/02 A3017 RMK A01 T01080017  RH  053%=      5-min Rain = 0
KTAS 171605Z 02018KT 11/02 A3017 RMK A01 T01100017  RH  053%=      5-min Rain = 0
KTAS 171606Z 02016KT 11/02 A3017 RMK A01 T01110018  RH  053%=      5-min Rain = 0
KTAS 171607Z 01018G23KT 11/02 A3017 RMK A01 T01120018  RH  052%=      5-min Rain = 0
KTAS 171608Z 01019KT 11/02 A3017 RMK A01 T01110017  RH  052%=      5-min Rain = 0
KTAS 171609Z 01015KT 11/02 A3017 RMK A01 T01120018  RH  052%=      5-min Rain = 0
KTAS 171610Z 01018KT 11/02 A3017 RMK A01 T01140019  RH  052%=      5-min Rain = 0
KTAS 171611Z 01017KT 11/02 A3017 RMK A01 T01130017  RH  052%=      5-min Rain = 0
KTAS 171612Z 01018KT 11/02 A3017 RMK A01 T01130017  RH  052%=      5-min Rain = 0
KTAS 171613Z 01018G23KT 11/02 A3017 RMK A01 T01120016  RH  052%=      5-min Rain = 0
KTAS 171614Z 01020KT 11/02 A3017 RMK A01 T01110016  RH  052%=      5-min Rain = 0
KTAS 171615Z 02021KT 11/02 A3017 RMK A01 T01100016  RH  052%=      5-min Rain = 0
KTAS 171616Z 01018KT 11/02 A3017 RMK A01 T01100016  RH  052%=      5-min Rain = 0
KTAS 171617Z 01020KT 11/02 A3017 RMK A01 T01120018  RH  052%=      5-min Rain = 0
KTAS 171618Z 01021KT 11/02 A3017 RMK A01 T01110016  RH  052%=      5-min Rain = 0
KTAS 171619Z 01019G24KT 11/02 A3017 RMK A01 T01120017  RH  052%=      5-min Rain = 0
KTAS 171620Z 02020KT 11/02 A3017 RMK A01 T01120016  RH  052%=      5-min Rain = 0
KTAS 171621Z 01020KT 11/02 A3017 RMK A01 T01120016  RH  052%=      5-min Rain = 0
KTAS 171622Z 01020G27KT 11/02 A3017 RMK A01 T01120016  RH  052%=      5-min Rain = 0
KTAS 171623Z 02021KT 11/02 A3017 RMK A01 T01110016  RH  052%=      5-min Rain = 0
KTAS 171624Z 02020KT 11/02 A3017 RMK A01 T01110016  RH  052%=      5-min Rain = 0
KTAS 171625Z 01020KT 11/02 A3017 RMK A01 T01110016  RH  052%=      5-min Rain = 0
KTAS 171626Z 02017KT 11/02 A3017 RMK A01 T01130018  RH  052%=      5-min Rain = 0
KTAS 171627Z 02017KT 12/02 A3017 RMK A01 T01160018  RH  051%=      5-min Rain = 0
KTAS 171628Z 01015KT 12/02 A3017 RMK A01 T01170018  RH  051%=      5-min Rain = 0
KTAS 171629Z 01020G25KT 12/02 A3017 RMK A01 T01170017  RH  050%=      5-min Rain = 0
KTAS 171630Z 00019KT 12/02 A3017 RMK A01 T01150016  RH  051%=      5-min Rain = 0
KTAS 171631Z 01019KT 12/02 A3017 RMK A01 T01160017  RH  051%=      5-min Rain = 0
KTAS 171632Z 00019KT 12/02 A3017 RMK A01 T01150016  RH  051%=      5-min Rain = 0
KTAS 171633Z 01021KT 12/02 A3017 RMK A01 T01150016  RH  051%=      5-min Rain = 0
KTAS 171634Z 01019KT 11/02 A3017 RMK A01 T01140016  RH  051%=      5-min Rain = 0
KTAS 171635Z 01019KT 12/02 A3017 RMK A01 T01150017  RH  051%=      5-min Rain = 0
KTAS 171636Z 02017KT 12/02 A3017 RMK A01 T01150017  RH  051%=      5-min Rain = 0
KTAS 171637Z 02017KT 12/02 A3017 RMK A01 T01150017  RH  051%=      5-min Rain = 0
KTAS 171638Z 02017G22KT 12/02 A3017 RMK A01 T01180018  RH  051%=      5-min Rain = 0
KTAS 171639Z 01016KT 12/02 A3017 RMK A01 T01180017  RH  050%=      5-min Rain = 0
KTAS 171640Z 01020KT 12/02 A3017 RMK A01 T01180017  RH  050%=      5-min Rain = 0
KTAS 171641Z 01019KT 12/02 A3017 RMK A01 T01170015  RH  050%=      5-min Rain = 0
KTAS 171642Z 01017KT 12/02 A3017 RMK A01 T01170017  RH  050%=      5-min Rain = 0
KTAS 171643Z 02016KT 12/02 A3017 RMK A01 T01180017  RH  050%=      5-min Rain = 0
KTAS 171644Z 03017KT 12/02 A3017 RMK A01 T01190017  RH  050%=      5-min Rain = 0
KTAS 171645Z 02020KT 12/02 A3017 RMK A01 T01190017  RH  050%=      5-min Rain = 0
KTAS 171646Z 01018KT 12/02 A3017 RMK A01 T01180017  RH  050%=      5-min Rain = 0
KTAS 171647Z 36016KT 12/02 A3017 RMK A01 T01190017  RH  050%=      5-min Rain = 0
KTAS 171648Z 01018KT 12/02 A3017 RMK A01 T01200018  RH  050%=      5-min Rain = 0
KTAS 171649Z 01016KT 12/02 A3017 RMK A01 T01210017  RH  049%=      5-min Rain = 0
KTAS 171650Z 01016KT 12/02 A3017 RMK A01 T01200017  RH  049%=      5-min Rain = 0
KTAS 171651Z 02015G23KT 12/02 A3017 RMK A01 T01220019  RH  049%=      5-min Rain = 0
KTAS 171652Z 01015KT 12/02 A3017 RMK A01 T01230019  RH  049%=      5-min Rain = 0
KTAS 171653Z 02015KT 12/02 A3017 RMK A01 T01230018  RH  049%=      5-min Rain = 0
KTAS 171654Z 02018KT 12/02 A3017 RMK A01 T01240018  RH  049%=      5-min Rain = 0
KTAS 171655Z 01017G23KT 12/02 A3017 RMK A01 T01230018  RH  048%=      5-min Rain = 0
KTAS 171656Z 02019KT 12/02 A3017 RMK A01 T01220017  RH  048%=      5-min Rain = 0
KTAS 171657Z 02019KT 12/02 A3017 RMK A01 T01210017  RH  049%=      5-min Rain = 0
KTAS 171658Z 02019KT 12/02 A3017 RMK A01 T01220018  RH  049%=      5-min Rain = 0
KTAS 171659Z 02017KT 12/02 A3017 RMK A01 T01200016  RH  049%=      5-min Rain = 0
KTAS 171700Z 02017KT 12/02 A3017 RMK A01 T01210018  RH  049%=      5-min Rain = 0
KTAS 171701Z 02017KT 12/02 A3017 RMK A01 T01230018  RH  049%=      5-min Rain = 0
KTAS 171702Z 01019KT 12/02 A3017 RMK A01 T01230017  RH  048%=      5-min Rain = 0
KTAS 171703Z 01017KT 12/02 A3017 RMK A01 T01210016  RH  049%=      5-min Rain = 0
KTAS 171704Z 01017KT 12/02 A3017 RMK A01 T01210017  RH  049%=      5-min Rain = 0
KTAS 171705Z 02015KT 12/02 A3017 RMK A01 T01220017  RH  049%=      5-min Rain = 0
KTAS 171706Z 01015G20KT 12/02 A3017 RMK A01 T01220018  RH  049%=      5-min Rain = 0
KTAS 171707Z 01016KT 12/02 A3017 RMK A01 T01240018  RH  048%=      5-min Rain = 0
KTAS 171708Z 02015KT 12/02 A3017 RMK A01 T01240018  RH  048%=      5-min Rain = 0
KTAS 171709Z 01015KT 12/02 A3017 RMK A01 T01240017  RH  048%=      5-min Rain = 0
KTAS 171710Z 00016KT 13/02 A3017 RMK A01 T01250019  RH  048%=      5-min Rain = 0
KTAS 171711Z 02017KT 13/02 A3017 RMK A01 T01260018  RH  048%=      5-min Rain = 0
KTAS 171712Z 02014KT 13/02 A3017 RMK A01 T01250019  RH  048%=      5-min Rain = 0
KTAS 171713Z 01017G22KT 13/02 A3017 RMK A01 T01260019  RH  048%=      5-min Rain = 0
KTAS 171714Z 01018KT 13/02 A3017 RMK A01 T01270018  RH  048%=      5-min Rain = 0
KTAS 171715Z 01014KT 13/02 A3017 RMK A01 T01260017  RH  047%=      5-min Rain = 0
KTAS 171716Z 01010KT 13/02 A3017 RMK A01 T01290021  RH  048%=      5-min Rain = 0
KTAS 171717Z 01016G21KT 13/02 A3017 RMK A01 T01320019  RH  046%=      5-min Rain = 0
KTAS 171718Z 01016KT 13/02 A3017 RMK A01 T01290017  RH  046%=      5-min Rain = 0
KTAS 171719Z 01020KT 13/02 A3017 RMK A01 T01270017  RH  047%=      5-min Rain = 0
KTAS 171720Z 00017KT 13/02 A3017 RMK A01 T01270018  RH  047%=      5-min Rain = 0
KTAS 171721Z 01017KT 13/02 A3017 RMK A01 T01260017  RH  047%=      5-min Rain = 0
KTAS 171722Z 00015KT 13/02 A3017 RMK A01 T01270018  RH  048%=      5-min Rain = 0
KTAS 171723Z 01017KT 13/02 A3017 RMK A01 T01270017  RH  047%=      5-min Rain = 0
KTAS 171724Z 02015KT 13/02 A3017 RMK A01 T01300020  RH  047%=      5-min Rain = 0
KTAS 171725Z 02017KT 13/02 A3016 RMK A01 T01290017  RH  046%=      5-min Rain = 0
KTAS 171726Z 01014KT 13/02 A3017 RMK A01 T01280018  RH  047%=      5-min Rain = 0
KTAS 171727Z 00014KT 13/02 A3017 RMK A01 T01300018  RH  047%=      5-min Rain = 0
KTAS 171728Z 01018KT 13/02 A3017 RMK A01 T01330019  RH  046%=      5-min Rain = 0
KTAS 171729Z 02016KT 13/02 A3017 RMK A01 T01320017  RH  046%=      5-min Rain = 0
KTAS 171730Z 02015KT 13/02 A3017 RMK A01 T01310018  RH  046%=      5-min Rain = 0
KTAS 171731Z 02016KT 13/02 A3017 RMK A01 T01320018  RH  046%=      5-min Rain = 0
KTAS 171732Z 02015G20KT 13/02 A3016 RMK A01 T01310017  RH  046%=      5-min Rain = 0
KTAS 171733Z 01017KT 13/02 A3016 RMK A01 T01320019  RH  046%=      5-min Rain = 0
KTAS 171734Z 02014KT 13/02 A3016 RMK A01 T01330019  RH  046%=      5-min Rain = 0
KTAS 171735Z 01017KT 14/02 A3016 RMK A01 T01350019  RH  045%=      5-min Rain = 0
KTAS 171736Z 01017KT 13/02 A3016 RMK A01 T01330017  RH  045%=      5-min Rain = 0
KTAS 171737Z 01018KT 13/02 A3016 RMK A01 T01320017  RH  045%=      5-min Rain = 0
KTAS 171738Z 01017KT 13/02 A3016 RMK A01 T01320016  RH  045%=      5-min Rain = 0
KTAS 171739Z 01015KT 13/02 A3016 RMK A01 T01320017  RH  046%=      5-min Rain = 0
KTAS 171740Z 00017KT 13/02 A3016 RMK A01 T01340018  RH  045%=      5-min Rain = 0
KTAS 171741Z 02015KT 14/02 A3016 RMK A01 T01350019  RH  045%=      5-min Rain = 0
KTAS 171742Z 01016G21KT 14/02 A3016 RMK A01 T01350017  RH  045%=      5-min Rain = 0
KTAS 171743Z 01017KT 13/02 A3016 RMK A01 T01330017  RH  045%=      5-min Rain = 0
KTAS 171744Z 02016KT 14/02 A3016 RMK A01 T01350019  RH  045%=      5-min Rain = 0
KTAS 171745Z 01014G20KT 14/02 A3016 RMK A01 T01370020  RH  045%=      5-min Rain = 0
KTAS 171746Z 01015G20KT 14/02 A3016 RMK A01 T01360018  RH  045%=      5-min Rain = 0
KTAS 171747Z 01013KT 14/02 A3016 RMK A01 T01360019  RH  045%=      5-min Rain = 0
KTAS 171748Z 01012KT 14/02 A3016 RMK A01 T01380020  RH  045%=      5-min Rain = 0
KTAS 171749Z 01015KT 14/02 A3016 RMK A01 T01390019  RH  044%=      5-min Rain = 0
KTAS 171750Z 01014KT 14/02 A3016 RMK A01 T01380019  RH  044%=      5-min Rain = 0
KTAS 171751Z 00011KT 14/02 A3016 RMK A01 T01380019  RH  044%=      5-min Rain = 0
KTAS 171752Z 36014KT 14/02 A3016 RMK A01 T01370020  RH  045%=      5-min Rain = 0
KTAS 171753Z 01015KT 14/02 A3016 RMK A01 T01390021  RH  045%=      5-min Rain = 0
KTAS 171754Z 01011KT 14/02 A3016 RMK A01 T01370018  RH  044%=      5-min Rain = 0
KTAS 171755Z 36013KT 14/02 A3016 RMK A01 T01370020  RH  045%=      5-min Rain = 0
KTAS 171756Z 01012KT 14/02 A3016 RMK A01 T01380020  RH  045%=      5-min Rain = 0
KTAS 171757Z 01013KT 14/02 A3015 RMK A01 T01410022  RH  044%=      5-min Rain = 0
KTAS 171758Z 01014KT 14/02 A3015 RMK A01 T01420020  RH  044%=      5-min Rain = 0
KTAS 171759Z 00013KT 14/02 A3015 RMK A01 T01400019  RH  044%=      5-min Rain = 0
KTAS 171800Z 01015KT 14/02 A3015 RMK A01 T01390019  RH  044%=      5-min Rain = 0
KTAS 171801Z 01013KT 14/02 A3016 RMK A01 T01410021  RH  044%=      5-min Rain = 0
KTAS 171802Z 00013KT 14/02 A3016 RMK A01 T01430020  RH  043%=      5-min Rain = 0
KTAS 171803Z 00014KT 14/02 A3016 RMK A01 T01430020  RH  043%=      5-min Rain = 0
KTAS 171804Z 00015KT 14/02 A3015 RMK A01 T01420018  RH  043%=      5-min Rain = 0
KTAS 171805Z 00013KT 14/02 A3015 RMK A01 T01400018  RH  043%=      5-min Rain = 0
KTAS 171806Z 01012KT 14/02 A3015 RMK A01 T01420021  RH  044%=      5-min Rain = 0
KTAS 171807Z 00014KT 14/02 A3015 RMK A01 T01420020  RH  044%=      5-min Rain = 0
KTAS 171808Z 01011KT 14/02 A3015 RMK A01 T01420020  RH  044%=      5-min Rain = 0
KTAS 171809Z 01013KT 14/02 A3015 RMK A01 T01420020  RH  044%=      5-min Rain = 0
KTAS 171810Z 01014KT 14/02 A3015 RMK A01 T01440021  RH  043%=      5-min Rain = 0
KTAS 171811Z 00014KT 15/02 A3015 RMK A01 T01460020  RH  043%=      5-min Rain = 0
KTAS 171812Z 01012KT 15/02 A3015 RMK A01 T01470021  RH  043%=      5-min Rain = 0
KTAS 171813Z 02015KT 15/02 A3015 RMK A01 T01460019  RH  042%=      5-min Rain = 0
KTAS 171814Z 02015KT 14/02 A3015 RMK A01 T01420018  RH  043%=      5-min Rain = 0
KTAS 171815Z 02013KT 14/02 A3015 RMK A01 T01420019  RH  043%=      5-min Rain = 0
KTAS 171816Z 02010KT 14/02 A3014 RMK A01 T01440019  RH  043%=      5-min Rain = 0
KTAS 171817Z 02014KT 15/02 A3014 RMK A01 T01470021  RH  043%=      5-min Rain = 0
KTAS 171818Z 02013KT 15/02 A3014 RMK A01 T01460019  RH  042%=      5-min Rain = 0
KTAS 171819Z 02012KT 15/02 A3014 RMK A01 T01460019  RH  042%=      5-min Rain = 0
KTAS 171820Z 02014G19KT 15/02 A3014 RMK A01 T01480021  RH  042%=      5-min Rain = 0
KTAS 171821Z 02012KT 15/02 A3014 RMK A01 T01490019  RH  042%=      5-min Rain = 0
KTAS 171822Z 03011KT 15/02 A3014 RMK A01 T01490021  RH  042%=      5-min Rain = 0
KTAS 171823Z 02012KT 15/02 A3014 RMK A01 T01490020  RH  042%=      5-min Rain = 0
KTAS 171824Z 02012KT 15/02 A3014 RMK A01 T01500021  RH  042%=      5-min Rain = 0
KTAS 171825Z 01011KT 15/02 A3014 RMK A01 T01500021  RH  042%=      5-min Rain = 0
KTAS 171826Z 00011KT 15/02 A3014 RMK A01 T01520023  RH  042%=      5-min Rain = 0
KTAS 171827Z 02015KT 15/02 A3014 RMK A01 T01530021  RH  041%=      5-min Rain = 0
KTAS 171828Z 02012KT 15/02 A3014 RMK A01 T01520020  RH  041%=      5-min Rain = 0
KTAS 171829Z 01012G17KT 15/02 A3014 RMK A01 T01500020  RH  042%=      5-min Rain = 0
KTAS 171830Z 00012KT 15/02 A3014 RMK A01 T01510022  RH  042%=      5-min Rain = 0
KTAS 171831Z 36010KT 15/02 A3014 RMK A01 T01540022  RH  041%=      5-min Rain = 0
KTAS 171832Z 36012G17KT 15/02 A3014 RMK A01 T01530020  RH  041%=      5-min Rain = 0
KTAS 171833Z 00012KT 15/02 A3014 RMK A01 T01510020  RH  041%=      5-min Rain = 0
KTAS 171834Z 35012KT 15/02 A3014 RMK A01 T01510020  RH  041%=      5-min Rain = 0
KTAS 171835Z 01011KT 15/02 A3014 RMK A01 T01520022  RH  042%=      5-min Rain = 0
KTAS 171836Z 01012KT 15/02 A3014 RMK A01 T01540021  RH  041%=      5-min Rain = 0
KTAS 171837Z 01012KT 15/02 A3014 RMK A01 T01540020  RH  040%=      5-min Rain = 0
KTAS 171838Z 35011KT 16/02 A3014 RMK A01 T01550021  RH  041%=      5-min Rain = 0
KTAS 171839Z 01009KT 15/02 A3014 RMK A01 T01540020  RH  040%=      5-min Rain = 0
KTAS 171840Z 35013KT 16/02 A3014 RMK A01 T01550021  RH  040%=      5-min Rain = 0
KTAS 171841Z 00009KT 15/02 A3014 RMK A01 T01540020  RH  040%=      5-min Rain = 0
KTAS 171842Z 02009KT 15/02 A3014 RMK A01 T01540021  RH  041%=      5-min Rain = 0
KTAS 171843Z 02012G18KT 15/02 A3013 RMK A01 T01540020  RH  040%=      5-min Rain = 0
KTAS 171844Z 02011KT 15/02 A3013 RMK A01 T01540022  RH  041%=      5-min Rain = 0
KTAS 171845Z 00011G18KT 16/02 A3013 RMK A01 T01550022  RH  041%=      5-min Rain = 0
KTAS 171846Z 01014KT 16/02 A3013 RMK A01 T01570021  RH  040%=      5-min Rain = 0
KTAS 171847Z 01012KT 16/02 A3013 RMK A01 T01560020  RH  040%=      5-min Rain = 0
KTAS 171848Z 00012KT 16/02 A3014 RMK A01 T01570021  RH  040%=      5-min Rain = 0
KTAS 171849Z 00011KT 15/02 A3013 RMK A01 T01540019  RH  040%=      5-min Rain = 0
KTAS 171850Z 36011KT 15/02 A3013 RMK A01 T01540021  RH  041%=      5-min Rain = 0
KTAS 171851Z 01011KT 15/02 A3014 RMK A01 T01540020  RH  040%=      5-min Rain = 0
KTAS 171852Z 01007KT 15/02 A3013 RMK A01 T01530021  RH  041%=      5-min Rain = 0
KTAS 171853Z 00006G11KT 15/02 A3013 RMK A01 T01530020  RH  041%=      5-min Rain = 0
KTAS 171854Z 02011KT 15/02 A3013 RMK A01 T01540022  RH  041%=      5-min Rain = 0
KTAS 171855Z 01011KT 16/02 A3013 RMK A01 T01560021  RH  040%=      5-min Rain = 0
KTAS 171856Z 01007KT 16/02 A3013 RMK A01 T01590022  RH  040%=      5-min Rain = 0
KTAS 171857Z 02012KT 16/02 A3013 RMK A01 T01610022  RH  039%=      5-min Rain = 0
KTAS 171858Z 02014KT 16/02 A3013 RMK A01 T01590019  RH  039%=      5-min Rain = 0
KTAS 171859Z 01010KT 16/02 A3013 RMK A01 T01560019  RH  040%=      5-min Rain = 0
KTAS 171900Z 01011KT 16/02 A3013 RMK A01 T01550018  RH  040%=      5-min Rain = 0
KTAS 171901Z 02012KT 15/02 A3013 RMK A01 T01540019  RH  040%=      5-min Rain = 0
KTAS 171902Z 02012KT 15/02 A3013 RMK A01 T01540019  RH  040%=      5-min Rain = 0
KTAS 171903Z 02009KT 15/02 A3013 RMK A01 T01540019  RH  040%=      5-min Rain = 0
KTAS 171904Z 01009KT 15/02 A3013 RMK A01 T01540021  RH  040%=      5-min Rain = 0
KTAS 171905Z 01013KT 16/02 A3013 RMK A01 T01580022  RH  040%=      5-min Rain = 0
KTAS 171906Z 00012KT 16/02 A3013 RMK A01 T01570020  RH  039%=      5-min Rain = 0
KTAS 171907Z 01012KT 16/02 A3013 RMK A01 T01570020  RH  040%=      5-min Rain = 0
KTAS 171908Z 01008KT 16/02 A3013 RMK A01 T01570021  RH  040%=      5-min Rain = 0
KTAS 171909Z 00009KT 16/02 A3013 RMK A01 T01600022  RH  039%=      5-min Rain = 0
KTAS 171910Z 01010KT 16/02 A3013 RMK A01 T01600021  RH  039%=      5-min Rain = 0
KTAS 171911Z 03008KT 16/02 A3013 RMK A01 T01610022  RH  039%=      5-min Rain = 0
KTAS 171912Z 02009G14KT 16/02 A3013 RMK A01 T01610021  RH  039%=      5-min Rain = 0
KTAS 171913Z 01015KT 16/02 A3013 RMK A01 T01600019  RH  039%=      5-min Rain = 0
KTAS 171914Z 36012KT 16/02 A3013 RMK A01 T01590019  RH  039%=      5-min Rain = 0
KTAS 171915Z 00010KT 16/02 A3013 RMK A01 T01590020  RH  039%=      5-min Rain = 0
KTAS 171916Z 02011KT 16/02 A3013 RMK A01 T01610021  RH  039%=      5-min Rain = 0
KTAS 171917Z 04010KT 16/02 A3013 RMK A01 T01620021  RH  039%=      5-min Rain = 0
KTAS 171918Z 02009KT 16/02 A3013 RMK A01 T01630022  RH  039%=      5-min Rain = 0
KTAS 171919Z 01009KT 16/02 A3013 RMK A01 T01640021  RH  038%=      5-min Rain = 0
KTAS 171920Z 00010KT 16/02 A3013 RMK A01 T01620019  RH  038%=      5-min Rain = 0
KTAS 171921Z 02011KT 16/02 A3013 RMK A01 T01600018  RH  038%=      5-min Rain = 0
KTAS 171922Z 02011KT 16/02 A3013 RMK A01 T01600019  RH  039%=      5-min Rain = 0
KTAS 171923Z 03012KT 16/02 A3013 RMK A01 T01610019  RH  038%=      5-min Rain = 0
KTAS 171924Z 03008KT 16/02 A3013 RMK A01 T01600018  RH  038%=      5-min Rain = 0
KTAS 171925Z 04010KT 16/02 A3013 RMK A01 T01620020  RH  038%=      5-min Rain = 0
KTAS 171926Z 04011KT 16/02 A3013 RMK A01 T01630019  RH  038%=      5-min Rain = 0
KTAS 171927Z 03011KT 16/02 A3013 RMK A01 T01600018  RH  038%=      5-min Rain = 0
KTAS 171928Z 02009KT 16/02 A3013 RMK A01 T01600017  RH  038%=      5-min Rain = 0
KTAS 171929Z 03008KT 16/02 A3013 RMK A01 T01600018  RH  038%=      5-min Rain = 0
KTAS 171930Z 02009KT 16/02 A3013 RMK A01 T01620018  RH  038%=      5-min Rain = 0
KTAS 171931Z 02009KT 16/02 A3013 RMK A01 T01600016  RH  038%=      5-min Rain = 0
KTAS 171932Z 02007KT 16/02 A3013 RMK A01 T01600018  RH  038%=      5-min Rain = 0
KTAS 171933Z 02006KT 16/02 A3013 RMK A01 T01600019  RH  039%=      5-min Rain = 0
KTAS 171934Z 01009KT 16/02 A3013 RMK A01 T01620021  RH  039%=      5-min Rain = 0
KTAS 171935Z 01014KT 17/02 A3013 RMK A01 T01650020  RH  038%=      5-min Rain = 0
KTAS 171936Z 02010KT 17/02 A3013 RMK A01 T01650019  RH  038%=      5-min Rain = 0
KTAS 171937Z 01010KT 17/02 A3013 RMK A01 T01650020  RH  038%=      5-min Rain = 0
KTAS 171938Z 02009KT 17/02 A3012 RMK A01 T01650020  RH  038%=      5-min Rain = 0
KTAS 171939Z 02007G13KT 17/02 A3012 RMK A01 T01650020  RH  038%=      5-min Rain = 0
KTAS 171940Z 01012KT 17/02 A3012 RMK A01 T01670020  RH  037%=      5-min Rain = 0
KTAS 171941Z 02013G18KT 17/02 A3012 RMK A01 T01670018  RH  037%=      5-min Rain = 0
KTAS 171942Z 03011KT 17/02 A3012 RMK A01 T01660017  RH  037%=      5-min Rain = 0
KTAS 171943Z 02012KT 17/02 A3013 RMK A01 T01660018  RH  037%=      5-min Rain = 0
KTAS 171944Z 01010KT 17/02 A3012 RMK A01 T01660016  RH  037%=      5-min Rain = 0
KTAS 171945Z 03009KT 16/02 A3012 RMK A01 T01640017  RH  037%=      5-min Rain = 0
KTAS 171946Z 03011KT 17/02 A3012 RMK A01 T01660020  RH  037%=      5-min Rain = 0
KTAS 171947Z 03010KT 17/02 A3012 RMK A01 T01650019  RH  037%=      5-min Rain = 0
KTAS 171948Z 04011KT 16/02 A3012 RMK A01 T01640019  RH  038%=      5-min Rain = 0
KTAS 171949Z 04010KT 17/02 A3012 RMK A01 T01650021  RH  038%=      5-min Rain = 0
KTAS 171950Z 03013KT 17/02 A3012 RMK A01 T01690022  RH  037%=      5-min Rain = 0
KTAS 171951Z 01013KT 17/02 A3012 RMK A01 T01690020  RH  037%=      5-min Rain = 0
KTAS 171952Z 01013KT 17/02 A3012 RMK A01 T01680019  RH  037%=      5-min Rain = 0
KTAS 171953Z 02010KT 17/02 A3012 RMK A01 T01670019  RH  037%=      5-min Rain = 0
KTAS 171954Z 02010KT 17/02 A3012 RMK A01 T01650018  RH  037%=      5-min Rain = 0
KTAS 171955Z 02008KT 17/02 A3012 RMK A01 T01650020  RH  038%=      5-min Rain = 0
KTAS 171956Z 03011G16KT 17/02 A3012 RMK A01 T01690022  RH  037%=      5-min Rain = 0
KTAS 171957Z 03014KT 17/02 A3012 RMK A01 T01710020  RH  036%=      5-min Rain = 0
KTAS 171958Z 03015KT 17/02 A3011 RMK A01 T01680016  RH  036%=      5-min Rain = 0
KTAS 171959Z 02008KT 17/02 A3012 RMK A01 T01660017  RH  037%=      5-min Rain = 0
KTAS 172000Z 04008KT 17/02 A3011 RMK A01 T01670018  RH  037%=      5-min Rain = 0
KTAS 172001Z 02007KT 17/02 A3011 RMK A01 T01690019  RH  036%=      5-min Rain = 0
KTAS 172002Z 02007KT 17/02 A3011 RMK A01 T01690019  RH  036%=      5-min Rain = 0
KTAS 172003Z 01011KT 17/02 A3011 RMK A01 T01710021  RH  036%=      5-min Rain = 0
KTAS 172004Z 00011KT 17/02 A3011 RMK A01 T01730020  RH  036%=      5-min Rain = 0
KTAS 172005Z 01010KT 17/02 A3011 RMK A01 T01700017  RH  036%=      5-min Rain = 0
KTAS 172006Z 01012KT 17/02 A3011 RMK A01 T01700020  RH  036%=      5-min Rain = 0
KTAS 172007Z 00009G14KT 17/02 A3011 RMK A01 T01690019  RH  036%=      5-min Rain = 0
KTAS 172008Z 00012KT 17/02 A3012 RMK A01 T01700020  RH  036%=      5-min Rain = 0
KTAS 172009Z 01009KT 17/02 A3012 RMK A01 T01680019  RH  037%=      5-min Rain = 0
KTAS 172010Z 02010KT 17/02 A3012 RMK A01 T01700021  RH  037%=      5-min Rain = 0
KTAS 172011Z 03008KT 17/02 A3011 RMK A01 T01710021  RH  036%=      5-min Rain = 0
KTAS 172012Z 03010KT 17/02 A3012 RMK A01 T01730021  RH  036%=      5-min Rain = 0
KTAS 172013Z 03011KT 17/02 A3011 RMK A01 T01720019  RH  036%=      5-min Rain = 0
KTAS 172014Z 01014KT 17/02 A3011 RMK A01 T01700019  RH  036%=      5-min Rain = 0
KTAS 172015Z 02013KT 17/02 A3011 RMK A01 T01700019  RH  036%=      5-min Rain = 0
KTAS 172016Z 01011KT 17/02 A3011 RMK A01 T01680018  RH  037%=      5-min Rain = 0
KTAS 172017Z 36010KT 17/02 A3011 RMK A01 T01670018  RH  037%=      5-min Rain = 0
KTAS 172018Z 01010KT 17/02 A3011 RMK A01 T01690020  RH  037%=      5-min Rain = 0
KTAS 172019Z 02012KT 17/02 A3011 RMK A01 T01690019  RH  036%=      5-min Rain = 0
KTAS 172020Z 01010KT 17/02 A3011 RMK A01 T01670018  RH  036%=      5-min Rain = 0
KTAS 172021Z 01009KT 17/02 A3011 RMK A01 T01680019  RH  037%=      5-min Rain = 0
KTAS 172022Z 01012KT 17/02 A3011 RMK A01 T01690019  RH  036%=      5-min Rain = 0
KTAS 172023Z 02016KT 17/02 A3011 RMK A01 T01710020  RH  036%=      5-min Rain = 0
KTAS 172024Z 01013KT 17/02 A3012 RMK A01 T01690018  RH  036%=      5-min Rain = 0
KTAS 172025Z 02011KT 17/02 A3012 RMK A01 T01670018  RH  037%=      5-min Rain = 0
KTAS 172026Z 02010KT 17/02 A3011 RMK A01 T01660018  RH  037%=      5-min Rain = 0
KTAS 172027Z 01009KT 16/02 A3011 RMK A01 T01640018  RH  037%=      5-min Rain = 0
KTAS 172028Z 02009KT 17/02 A3011 RMK A01 T01660020  RH  037%=      5-min Rain = 0
KTAS 172029Z 02012G17KT 17/02 A3011 RMK A01 T01700021  RH  037%=      5-min Rain = 0
KTAS 172030Z 01015KT 17/02 A3012 RMK A01 T01710019  RH  036%=      5-min Rain = 0
KTAS 172031Z 00012KT 17/02 A3012 RMK A01 T01690018  RH  036%=      5-min Rain = 0
KTAS 172032Z 36010KT 17/02 A3012 RMK A01 T01680018  RH  036%=      5-min Rain = 0
KTAS 172033Z 02009KT 17/02 A3012 RMK A01 T01670017  RH  037%=      5-min Rain = 0
KTAS 172034Z 02009KT 17/02 A3012 RMK A01 T01650017  RH  037%=      5-min Rain = 0
KTAS 172035Z 02011KT 17/02 A3012 RMK A01 T01650018  RH  037%=      5-min Rain = 0
KTAS 172036Z 03008KT 17/02 A3011 RMK A01 T01650019  RH  037%=      5-min Rain = 0
KTAS 172037Z 02010KT 17/02 A3011 RMK A01 T01670020  RH  037%=      5-min Rain = 0
KTAS 172038Z 02008KT 17/02 A3011 RMK A01 T01680020  RH  037%=      5-min Rain = 0
KTAS 172039Z 02011KT 17/02 A3011 RMK A01 T01700021  RH  037%=      5-min Rain = 0
KTAS 172040Z 01014KT 17/02 A3011 RMK A01 T01720019  RH  036%=      5-min Rain = 0
KTAS 172041Z 01014KT 17/02 A3011 RMK A01 T01700017  RH  036%=      5-min Rain = 0
KTAS 172042Z 00011KT 17/02 A3011 RMK A01 T01670015  RH  036%=      5-min Rain = 0
KTAS 172043Z 35009KT 17/02 A3011 RMK A01 T01670016  RH  036%=      5-min Rain = 0
KTAS 172044Z 00012KT 17/02 A3011 RMK A01 T01690017  RH  036%=      5-min Rain = 0
KTAS 172045Z 01012KT 17/01 A3011 RMK A01 T01690014  RH  035%=      5-min Rain = 0
KTAS 172046Z 00011KT 17/02 A3011 RMK A01 T01680015  RH  036%=      5-min Rain = 0
KTAS 172047Z 02010KT 17/02 A3011 RMK A01 T01680016  RH  036%=      5-min Rain = 0
KTAS 172048Z 03012KT 17/02 A3011 RMK A01 T01700017  RH  036%=      5-min Rain = 0
KTAS 172049Z 05009KT 17/02 A3011 RMK A01 T01700015  RH  035%=      5-min Rain = 0
KTAS 172050Z 03010KT 17/02 A3011 RMK A01 T01710016  RH  035%=      5-min Rain = 0
KTAS 172051Z 04008KT 17/02 A3011 RMK A01 T01700015  RH  035%=      5-min Rain = 0
KTAS 172052Z 03010G15KT 17/02 A3011 RMK A01 T01720018  RH  035%=      5-min Rain = 0
KTAS 172053Z 01009KT 17/02 A3011 RMK A01 T01710016  RH  035%=      5-min Rain = 0
KTAS 172054Z 00008KT 17/02 A3011 RMK A01 T01700016  RH  036%=      5-min Rain = 0
KTAS 172055Z 36007G12KT 17/02 A301 RMK A01 T01700017  RH  036%=      5-min Rain = 0
KTAS 172056Z 02012KT 17/02 A301 RMK A01 T01710017  RH  035%=      5-min Rain = 0
KTAS 172057Z 02008KT 17/02 A301 RMK A01 T01730017  RH  035%=      5-min Rain = 0
KTAS 172058Z 02010KT 17/02 A301 RMK A01 T01730016  RH  035%=      5-min Rain = 0
KTAS 172059Z 01011KT 17/02 A301 RMK A01 T01720015  RH  035%=      5-min Rain = 0
KTAS 172100Z 02009KT 17/01 A301 RMK A01 T01710013  RH  034%=      5-min Rain = 0
KTAS 172101Z 03006KT 17/01 A301 RMK A01 T01690013  RH  035%=      5-min Rain = 0
KTAS 172102Z 02009KT 17/01 A301 RMK A01 T01690014  RH  035%=      5-min Rain = 0
KTAS 172103Z 01008KT 17/01 A301 RMK A01 T01690013  RH  035%=      5-min Rain = 0
KTAS 172104Z 01006KT 17/01 A301 RMK A01 T01680013  RH  035%=      5-min Rain = 0
KTAS 172105Z 02005KT 17/01 A301 RMK A01 T01670014  RH  036%=      5-min Rain = 0
KTAS 172106Z 03006KT 17/02 A3009 RMK A01 T01680016  RH  036%=      5-min Rain = 0
KTAS 172107Z 04007KT 17/02 A3009 RMK A01 T01690017  RH  036%=      5-min Rain = 0
KTAS 172108Z 02006KT 17/02 A3009 RMK A01 T01670016  RH  036%=      5-min Rain = 0
KTAS 172109Z 01005KT 17/02 A3009 RMK A01 T01660016  RH  036%=      5-min Rain = 0
KTAS 172110Z 03004KT 17/02 A3009 RMK A01 T01660016  RH  036%=      5-min Rain = 0
KTAS 172111Z 05007KT 17/02 A3009 RMK A01 T01660017  RH  037%=      5-min Rain = 0
KTAS 172112Z 04009KT 17/02 A3009 RMK A01 T01670018  RH  036%=      5-min Rain = 0
KTAS 172113Z 04007KT 17/02 A3009 RMK A01 T01670018  RH  037%=      5-min Rain = 0
KTAS 172114Z 03003KT 17/02 A3009 RMK A01 T01690017  RH  036%=      5-min Rain = 0
KTAS 172115Z 05003KT 17/02 A3009 RMK A01 T01680015  RH  036%=      5-min Rain = 0
KTAS 172116Z 06004KT 17/02 A3009 RMK A01 T01680015  RH  036%=      5-min Rain = 0
KTAS 172117Z 02005KT 17/02 A3009 RMK A01 T01690017  RH  036%=      5-min Rain = 0
KTAS 172118Z 03011KT 17/02 A3009 RMK A01 T01700018  RH  036%=      5-min Rain = 0
KTAS 172119Z 03009KT 17/02 A3009 RMK A01 T01690017  RH  036%=      5-min Rain = 0
KTAS 172120Z 03006KT 17/02 A3009 RMK A01 T01670016  RH  036%=      5-min Rain = 0
KTAS 172121Z 03005KT 17/02 A3009 RMK A01 T01670017  RH  036%=      5-min Rain = 0
KTAS 172122Z 04005KT 17/02 A3009 RMK A01 T01670016  RH  036%=      5-min Rain = 0
KTAS 172123Z 04006KT 17/02 A3009 RMK A01 T01670017  RH  036%=      5-min Rain = 0
KTAS 172124Z 03007KT 17/02 A3009 RMK A01 T01670016  RH  036%=      5-min Rain = 0
KTAS 172125Z 05007KT 17/02 A3009 RMK A01 T01660016  RH  036%=      5-min Rain = 0
KTAS 172126Z 04006KT 17/02 A3009 RMK A01 T01660017  RH  036%=      5-min Rain = 0
KTAS 172127Z 04006KT 17/02 A3009 RMK A01 T01670017  RH  036%=      5-min Rain = 0
KTAS 172128Z 03006KT 17/02 A3009 RMK A01 T01670016  RH  036%=      5-min Rain = 0
KTAS 172129Z 02005KT 17/02 A3009 RMK A01 T01660016  RH  036%=      5-min Rain = 0
KTAS 172130Z 04004KT 17/02 A3009 RMK A01 T01650015  RH  036%=      5-min Rain = 0
KTAS 172131Z 04004KT 17/02 A3009 RMK A01 T01660015  RH  036%=      5-min Rain = 0
KTAS 172132Z 04006KT 17/02 A3009 RMK A01 T01670015  RH  036%=      5-min Rain = 0
KTAS 172133Z 36007KT 17/02 A3009 RMK A01 T01680016  RH  036%=      5-min Rain = 0
KTAS 172134Z 01006KT 17/02 A3009 RMK A01 T01690018  RH  036%=      5-min Rain = 0
KTAS 172135Z 03006KT 17/02 A3009 RMK A01 T01710018  RH  036%=      5-min Rain = 0
KTAS 172136Z 03006KT 17/02 A3009 RMK A01 T01710016  RH  035%=      5-min Rain = 0
KTAS 172137Z 02007KT 17/02 A3009 RMK A01 T01700015  RH  035%=      5-min Rain = 0
KTAS 172138Z 04005KT 17/02 A3009 RMK A01 T01700015  RH  035%=      5-min Rain = 0
KTAS 172139Z 02005KT 17/01 A3009 RMK A01 T01700014  RH  035%=      5-min Rain = 0
KTAS 172140Z 04007KT 17/02 A3009 RMK A01 T01700015  RH  035%=      5-min Rain = 0
KTAS 172141Z 03007KT 17/02 A3009 RMK A01 T01710015  RH  035%=      5-min Rain = 0
KTAS 172142Z 03007KT 17/01 A3009 RMK A01 T01700013  RH  035%=      5-min Rain = 0
KTAS 172143Z 04006KT 17/01 A3009 RMK A01 T01680013  RH  035%=      5-min Rain = 0
KTAS 172144Z 06006KT 17/01 A3009 RMK A01 T01690014  RH  035%=      5-min Rain = 0
KTAS 172145Z 04006KT 17/01 A3009 RMK A01 T01680013  RH  035%=      5-min Rain = 0
KTAS 172146Z 01006KT 17/01 A3009 RMK A01 T01690014  RH  035%=      5-min Rain = 0
KTAS 172147Z 03005KT 17/01 A3009 RMK A01 T01690013  RH  035%=      5-min Rain = 0
KTAS 172148Z 04004KT 17/01 A3009 RMK A01 T01680011  RH  035%=      5-min Rain = 0
KTAS 172149Z 04005KT 17/01 A3009 RMK A01 T01680013  RH  035%=      5-min Rain = 0
KTAS 172150Z 03005KT 17/01 A3009 RMK A01 T01680013  RH  035%=      5-min Rain = 0
KTAS 172151Z 01003KT 17/01 A3009 RMK A01 T01660012  RH  035%=      5-min Rain = 0
KTAS 172152Z 01004KT 17/01 A3009 RMK A01 T01650013  RH  036%=      5-min Rain = 0
KTAS 172153Z 02005KT 17/01 A3009 RMK A01 T01660013  RH  035%=      5-min Rain = 0
KTAS 172154Z 02008KT 17/01 A3009 RMK A01 T01670014  RH  036%=      5-min Rain = 0
KTAS 172155Z 02006KT 17/02 A3009 RMK A01 T01660015  RH  036%=      5-min Rain = 0
KTAS 172156Z 00005KT 17/02 A3009 RMK A01 T01650015  RH  036%=      5-min Rain = 0
KTAS 172157Z 01003KT 17/02 A3009 RMK A01 T01650015  RH  036%=      5-min Rain = 0
KTAS 172158Z 04005KT 17/02 A3009 RMK A01 T01660017  RH  037%=      5-min Rain = 0
KTAS 172159Z 03006KT 17/02 A3009 RMK A01 T01680018  RH  036%=      5-min Rain = 0
KTAS 172200Z 02007KT 17/02 A3009 RMK A01 T01690017  RH  036%=      5-min Rain = 0
KTAS 172201Z 03005KT 17/02 A3009 RMK A01 T01670015  RH  036%=      5-min Rain = 0
KTAS 172202Z 05005KT 17/02 A3009 RMK A01 T01660015  RH  036%=      5-min Rain = 0
KTAS 172203Z 04004KT 17/02 A3009 RMK A01 T01650015  RH  036%=      5-min Rain = 0
KTAS 172204Z 03004KT 17/02 A3009 RMK A01 T01660015  RH  036%=      5-min Rain = 0
KTAS 172205Z 03004KT 17/02 A3009 RMK A01 T01660015  RH  036%=      5-min Rain = 0
KTAS 172206Z 04004KT 17/02 A3009 RMK A01 T01670015  RH  036%=      5-min Rain = 0
KTAS 172207Z 07002KT 17/01 A3009 RMK A01 T01660014  RH  036%=      5-min Rain = 0
KTAS 172208Z 05002KT 17/02 A3009 RMK A01 T01660015  RH  036%=      5-min Rain = 0
KTAS 172209Z 04001KT 17/02 A3009 RMK A01 T01670015  RH  036%=      5-min Rain = 0
KTAS 172210Z 33002KT 17/02 A3009 RMK A01 T01670015  RH  036%=      5-min Rain = 0
KTAS 172211Z 36001KT 17/02 A3009 RMK A01 T01680016  RH  036%=      5-min Rain = 0
KTAS 172212Z 06002KT 17/02 A3009 RMK A01 T01690016  RH  036%=      5-min Rain = 0
KTAS 172213Z 03005KT 17/02 A3009 RMK A01 T01690016  RH  036%=      5-min Rain = 0
KTAS 172214Z 03006KT 17/02 A3009 RMK A01 T01680015  RH  036%=      5-min Rain = 0
KTAS 172215Z 03006KT 17/01 A3009 RMK A01 T01680014  RH  035%=      5-min Rain = 0
KTAS 172216Z 02007KT 17/01 A3009 RMK A01 T01670013  RH  035%=      5-min Rain = 0
KTAS 172217Z 04005KT 17/01 A3009 RMK A01 T01660013  RH  036%=      5-min Rain = 0
KTAS 172218Z 04004KT 17/01 A3009 RMK A01 T01660013  RH  035%=      5-min Rain = 0
KTAS 172219Z 02004KT 17/01 A3009 RMK A01 T01670014  RH  036%=      5-min Rain = 0
KTAS 172220Z 36004KT 17/01 A3009 RMK A01 T01660013  RH  035%=      5-min Rain = 0
KTAS 172221Z 36002KT 17/01 A3009 RMK A01 T01660013  RH  036%=      5-min Rain = 0
KTAS 172222Z 01002KT 17/01 A3009 RMK A01 T01650013  RH  036%=      5-min Rain = 0
KTAS 172223Z 04003KT 17/01 A3009 RMK A01 T01660013  RH  036%=      5-min Rain = 0
KTAS 172224Z 03006KT 17/01 A3009 RMK A01 T01660013  RH  036%=      5-min Rain = 0
KTAS 172225Z 02005KT 16/01 A3009 RMK A01 T01640012  RH  036%=      5-min Rain = 0
KTAS 172226Z 02005KT 16/01 A3009 RMK A01 T01630012  RH  036%=      5-min Rain = 0
KTAS 172227Z 03005KT 16/01 A3009 RMK A01 T01630013  RH  036%=      5-min Rain = 0
KTAS 172228Z 02004KT 16/01 A3009 RMK A01 T01630013  RH  036%=      5-min Rain = 0
KTAS 172229Z 01005KT 16/01 A3009 RMK A01 T01630014  RH  037%=      5-min Rain = 0
KTAS 172230Z 01005KT 16/01 A3009 RMK A01 T01620014  RH  037%=      5-min Rain = 0
KTAS 172231Z 01005KT 16/02 A3009 RMK A01 T01620015  RH  037%=      5-min Rain = 0
KTAS 172232Z 01004KT 16/01 A3009 RMK A01 T01620014  RH  037%=      5-min Rain = 0
KTAS 172233Z 01004KT 16/01 A3009 RMK A01 T01630014  RH  037%=      5-min Rain = 0
KTAS 172234Z 04005KT 16/01 A3009 RMK A01 T01630014  RH  037%=      5-min Rain = 0
KTAS 172235Z 04005KT 16/01 A3009 RMK A01 T01630014  RH  037%=      5-min Rain = 0
KTAS 172236Z 03004KT 16/02 A3009 RMK A01 T01640016  RH  037%=      5-min Rain = 0
KTAS 172237Z 02005KT 17/02 A3008 RMK A01 T01650015  RH  036%=      5-min Rain = 0
KTAS 172238Z 03005KT 16/01 A3008 RMK A01 T01630013  RH  036%=      5-min Rain = 0
KTAS 172239Z 03005KT 16/01 A3008 RMK A01 T01620013  RH  037%=      5-min Rain = 0
KTAS 172240Z 02005KT 16/02 A3008 RMK A01 T01620015  RH  037%=      5-min Rain = 0
KTAS 172241Z 04005KT 16/02 A3008 RMK A01 T01630015  RH  037%=      5-min Rain = 0
KTAS 172242Z 03006KT 16/02 A3008 RMK A01 T01620015  RH  037%=      5-min Rain = 0
KTAS 172243Z 03005KT 16/02 A3008 RMK A01 T01620017  RH  037%=      5-min Rain = 0
KTAS 172244Z 35004KT 16/02 A3008 RMK A01 T01620017  RH  038%=      5-min Rain = 0
KTAS 172245Z 02006KT 16/02 A3008 RMK A01 T01620017  RH  038%=      5-min Rain = 0
KTAS 172246Z 02005KT 16/02 A3008 RMK A01 T01620015  RH  037%=      5-min Rain = 0
KTAS 172247Z 00006KT 16/02 A3008 RMK A01 T01610016  RH  037%=      5-min Rain = 0
KTAS 172248Z 36005KT 16/02 A3008 RMK A01 T01600017  RH  038%=      5-min Rain = 0
KTAS 172249Z 35007KT 16/02 A3008 RMK A01 T01590016  RH  038%=      5-min Rain = 0
KTAS 172250Z 00006KT 16/02 A3008 RMK A01 T01590016  RH  038%=      5-min Rain = 0
KTAS 172251Z 01005KT 16/02 A3008 RMK A01 T01580016  RH  038%=      5-min Rain = 0
KTAS 172252Z 02005KT 16/02 A3008 RMK A01 T01580015  RH  038%=      5-min Rain = 0
KTAS 172253Z 01005KT 16/02 A3008 RMK A01 T01590015  RH  038%=      5-min Rain = 0
KTAS 172254Z 00006KT 16/01 A3008 RMK A01 T01580014  RH  038%=      5-min Rain = 0
KTAS 172255Z 00005KT 16/01 A3008 RMK A01 T01570013  RH  038%=      5-min Rain = 0
KTAS 172256Z 36005KT 16/01 A3009 RMK A01 T01570013  RH  038%=      5-min Rain = 0
KTAS 172257Z 35004KT 16/01 A3009 RMK A01 T01570013  RH  038%=      5-min Rain = 0
KTAS 172258Z 35004KT 16/01 A3009 RMK A01 T01570013  RH  038%=      5-min Rain = 0
KTAS 172259Z 36004KT 16/01 A3009 RMK A01 T01570014  RH  038%=      5-min Rain = 0
KTAS 172300Z 36004KT 16/01 A3009 RMK A01 T01560013  RH  038%=      5-min Rain = 0
KTAS 172301Z 35004KT 16/02 A3009 RMK A01 T01560015  RH  038%=      5-min Rain = 0
KTAS 172302Z 36003KT 16/02 A3009 RMK A01 T01550015  RH  039%=      5-min Rain = 0
KTAS 172303Z 35004KT 15/02 A3009 RMK A01 T01530015  RH  039%=      5-min Rain = 0
KTAS 172304Z 35003KT 15/02 A3009 RMK A01 T01530015  RH  039%=      5-min Rain = 0
KTAS 172305Z 34003KT 15/01 A3009 RMK A01 T01520014  RH  039%=      5-min Rain = 0
KTAS 172306Z 34003KT 15/01 A3009 RMK A01 T01520014  RH  039%=      5-min Rain = 0
KTAS 172307Z 35003KT 15/01 A3009 RMK A01 T01500014  RH  040%=      5-min Rain = 0
KTAS 172308Z 36003KT 15/01 A3009 RMK A01 T01490014  RH  040%=      5-min Rain = 0
KTAS 172309Z 35003KT 15/01 A3009 RMK A01 T01480014  RH  040%=      5-min Rain = 0
KTAS 172310Z 35003KT 15/02 A3009 RMK A01 T01470015  RH  041%=      5-min Rain = 0
KTAS 172311Z 35002KT 15/01 A3009 RMK A01 T01460014  RH  041%=      5-min Rain = 0
KTAS 172312Z 00002KT 15/01 A3009 RMK A01 T01460014  RH  041%=      5-min Rain = 0
KTAS 172313Z 00002KT 15/01 A3009 RMK A01 T01450014  RH  041%=      5-min Rain = 0
KTAS 172314Z 00002KT 15/01 A3009 RMK A01 T01450014  RH  041%=      5-min Rain = 0
KTAS 172315Z 00002KT 15/01 A3009 RMK A01 T01450013  RH  041%=      5-min Rain = 0
KTAS 172316Z 36002KT 14/01 A3009 RMK A01 T01430013  RH  041%=      5-min Rain = 0
KTAS 172317Z 01002KT 14/01 A3009 RMK A01 T01420013  RH  042%=      5-min Rain = 0
KTAS 172318Z 01003KT 14/01 A3009 RMK A01 T01420013  RH  042%=      5-min Rain = 0
KTAS 172319Z 00003KT 14/01 A3009 RMK A01 T01410012  RH  042%=      5-min Rain = 0
KTAS 172320Z 36003KT 14/01 A3009 RMK A01 T01410012  RH  042%=      5-min Rain = 0
KTAS 172321Z 36003KT 14/01 A3009 RMK A01 T01400012  RH  042%=      5-min Rain = 0
KTAS 172322Z 36004KT 14/01 A3009 RMK A01 T01390012  RH  042%=      5-min Rain = 0
KTAS 172323Z 35004KT 14/01 A3009 RMK A01 T01380013  RH  042%=      5-min Rain = 0
KTAS 172324Z 36004KT 14/01 A3009 RMK A01 T01370012  RH  043%=      5-min Rain = 0
KTAS 172325Z 36004KT 14/01 A3009 RMK A01 T01360012  RH  043%=      5-min Rain = 0
KTAS 172326Z 35004KT 13/01 A3009 RMK A01 T01340012  RH  043%=      5-min Rain = 0
KTAS 172327Z 35004KT 13/01 A3009 RMK A01 T01320012  RH  044%=      5-min Rain = 0
KTAS 172328Z 35004KT 13/01 A3009 RMK A01 T01310012  RH  044%=      5-min Rain = 0
KTAS 172329Z 35004KT 13/01 A3009 RMK A01 T01310013  RH  045%=      5-min Rain = 0
KTAS 172330Z 36003KT 13/01 A3009 RMK A01 T01300013  RH  045%=      5-min Rain = 0
KTAS 172331Z 36003KT 13/01 A3009 RMK A01 T01290013  RH  045%=      5-min Rain = 0
KTAS 172332Z 00003KT 13/01 A3009 RMK A01 T01290013  RH  045%=      5-min Rain = 0
KTAS 172333Z 00004KT 13/01 A3009 RMK A01 T01280014  RH  046%=      5-min Rain = 0
KTAS 172334Z 00004KT 13/01 A3009 RMK A01 T01270013  RH  046%=      5-min Rain = 0
KTAS 172335Z 00004KT 13/01 A3009 RMK A01 T01260013  RH  046%=      5-min Rain = 0
KTAS 172336Z 00004KT 13/01 A3009 RMK A01 T01250014  RH  047%=      5-min Rain = 0
KTAS 172337Z 00004KT 12/02 A3009 RMK A01 T01240015  RH  047%=      5-min Rain = 0
KTAS 172338Z 00004KT 12/02 A3009 RMK A01 T01230015  RH  047%=      5-min Rain = 0
KTAS 172339Z 00004KT 12/01 A3009 RMK A01 T01220014  RH  048%=      5-min Rain = 0
KTAS 172340Z 36004KT 12/01 A3009 RMK A01 T01210014  RH  048%=      5-min Rain = 0
KTAS 172341Z 35005KT 12/02 A3009 RMK A01 T01200015  RH  049%=      5-min Rain = 0
KTAS 172342Z 35005KT 12/02 A3009 RMK A01 T01190015  RH  049%=      5-min Rain = 0
KTAS 172343Z 35004KT 12/02 A3009 RMK A01 T01180015  RH  049%=      5-min Rain = 0
KTAS 172344Z 35004KT 12/01 A3009 RMK A01 T01160014  RH  049%=      5-min Rain = 0
KTAS 172345Z 35004KT 11/01 A3009 RMK A01 T01140013  RH  050%=      5-min Rain = 0
KTAS 172346Z 35003KT 11/01 A3009 RMK A01 T01130013  RH  050%=      5-min Rain = 0
KTAS 172347Z 34003KT 11/01 A3009 RMK A01 T01120014  RH  051%=      5-min Rain = 0
KTAS 172348Z 34004KT 11/02 A301 RMK A01 T01110015  RH  051%=      5-min Rain = 0
KTAS 172349Z 34004KT 11/02 A301 RMK A01 T01110016  RH  052%=      5-min Rain = 0
KTAS 172350Z 35003KT 11/02 A301 RMK A01 T01110017  RH  052%=      5-min Rain = 0
KTAS 172351Z 35004KT 11/02 A301 RMK A01 T01100017  RH  053%=      5-min Rain = 0
KTAS 172352Z 35004KT 11/02 A301 RMK A01 T01100017  RH  053%=      5-min Rain = 0
KTAS 172353Z 35004KT 11/02 A301 RMK A01 T01100017  RH  053%=      5-min Rain = 0
KTAS 172354Z 35004KT 11/02 A301 RMK A01 T01090017  RH  053%=      5-min Rain = 0
KTAS 172355Z 35004KT 11/02 A301 RMK A01 T01090017  RH  053%=      5-min Rain = 0
KTAS 172356Z 35004KT 11/02 A301 RMK A01 T01080016  RH  053%=      5-min Rain = 0
KTAS 172357Z 00003KT 11/02 A301 RMK A01 T01070015  RH  053%=      5-min Rain = 0
KTAS 172358Z 00004KT 11/02 A301 RMK A01 T01060015  RH  053%=      5-min Rain = 0
KTAS 172359Z 35004KT 11/02 A301 RMK A01 T01060015  RH  054%=      5-min Rain = 0
KTAS 180000Z 35003KT 11/02 A301 RMK A01 T01050016  RH  054%=      5-min Rain = 0
KTAS 180001Z 35003KT 11/02 A3009 RMK A01 T01050016  RH  054%=      5-min Rain = 0
KTAS 180002Z 35003KT 11/02 A3009 RMK A01 T01050016  RH  054%=      5-min Rain = 0
KTAS 180003Z 35003KT 11/02 A3009 RMK A01 T01050017  RH  054%=      5-min Rain = 0
KTAS 180004Z 35003KT 11/02 A301 RMK A01 T01050017  RH  054%=      5-min Rain = 0
KTAS 180005Z 35003KT 11/02 A301 RMK A01 T01050017  RH  054%=      5-min Rain = 0
KTAS 180006Z 35003KT 11/02 A301 RMK A01 T01050017  RH  054%=      5-min Rain = 0
KTAS 180007Z 34003KT 11/02 A301 RMK A01 T01050017  RH  055%=      5-min Rain = 0
KTAS 180008Z 34003KT 11/02 A301 RMK A01 T01050017  RH  055%=      5-min Rain = 0
KTAS 180009Z 33003KT 11/02 A301 RMK A01 T01050017  RH  055%=      5-min Rain = 0
KTAS 180010Z 33003KT 10/02 A301 RMK A01 T01030016  RH  055%=      5-min Rain = 0
KTAS 180011Z 33003KT 10/02 A301 RMK A01 T01010015  RH  055%=      5-min Rain = 0
KTAS 180012Z 33003KT 10/02 A301 RMK A01 T01000016  RH  056%=      5-min Rain = 0
KTAS 180013Z 33003KT 10/02 A301 RMK A01 T00990016  RH  056%=      5-min Rain = 0
KTAS 180014Z 33003KT 10/02 A301 RMK A01 T00980017  RH  057%=      5-min Rain = 0
KTAS 180015Z 33003KT 10/02 A301 RMK A01 T00990018  RH  057%=      5-min Rain = 0
KTAS 180016Z 33003KT 10/02 A301 RMK A01 T00990018  RH  057%=      5-min Rain = 0
KTAS 180017Z 33002KT 10/02 A301 RMK A01 T01000019  RH  057%=      5-min Rain = 0
KTAS 180018Z 30003KT 10/02 A301 RMK A01 T01000019  RH  057%=      5-min Rain = 0
KTAS 180019Z 30003KT 10/02 A301 RMK A01 T00990020  RH  058%=      5-min Rain = 0
KTAS 180020Z 30004KT 10/02 A301 RMK A01 T00990019  RH  058%=      5-min Rain = 0
KTAS 180021Z 30004KT 10/02 A301 RMK A01 T00980019  RH  058%=      5-min Rain = 0
KTAS 180022Z 30003KT 10/02 A301 RMK A01 T00980018  RH  058%=      5-min Rain = 0
KTAS 180023Z 30003KT 10/02 A301 RMK A01 T00970018  RH  058%=      5-min Rain = 0
KTAS 180024Z 30003KT 10/02 A3011 RMK A01 T00960019  RH  058%=      5-min Rain = 0
KTAS 180025Z 30003KT 10/02 A3011 RMK A01 T00960019  RH  058%=      5-min Rain = 0
KTAS 180026Z 30003KT 10/02 A3011 RMK A01 T00960019  RH  059%=      5-min Rain = 0
KTAS 180027Z 30003KT 10/02 A3011 RMK A01 T00960019  RH  059%=      5-min Rain = 0
KTAS 180028Z 30003KT 10/02 A3011 RMK A01 T00960019  RH  059%=      5-min Rain = 0
KTAS 180029Z 30003KT 10/02 A3011 RMK A01 T00960020  RH  059%=      5-min Rain = 0
KTAS 180030Z 30003KT 10/02 A3011 RMK A01 T00960020  RH  059%=      5-min Rain = 0
KTAS 180031Z 30003KT 10/02 A3011 RMK A01 T00960021  RH  060%=      5-min Rain = 0
KTAS 180032Z 30003KT 10/02 A3011 RMK A01 T00960021  RH  060%=      5-min Rain = 0
KTAS 180033Z 30003KT 10/02 A3011 RMK A01 T00960021  RH  060%=      5-min Rain = 0
KTAS 180034Z 31003KT 10/02 A3011 RMK A01 T00950020  RH  060%=      5-min Rain = 0
KTAS 180035Z 31003KT 09/02 A3011 RMK A01 T00940019  RH  060%=      5-min Rain = 0
KTAS 180036Z 31003KT 09/02 A3011 RMK A01 T00930020  RH  060%=      5-min Rain = 0
KTAS 180037Z 31003KT 09/02 A3011 RMK A01 T00930020  RH  060%=      5-min Rain = 0
KTAS 180038Z 31003KT 09/02 A3011 RMK A01 T00920020  RH  061%=      5-min Rain = 0
KTAS 180039Z 31003KT 09/02 A3011 RMK A01 T00920020  RH  061%=      5-min Rain = 0
KTAS 180040Z 31003KT 09/02 A3011 RMK A01 T00910020  RH  061%=      5-min Rain = 0
KTAS 180041Z 31003KT 09/02 A3011 RMK A01 T00910019  RH  061%=      5-min Rain = 0
KTAS 180042Z 31003KT 09/02 A3011 RMK A01 T00900019  RH  061%=      5-min Rain = 0
KTAS 180043Z 31003KT 09/02 A3011 RMK A01 T00900019  RH  061%=      5-min Rain = 0
KTAS 180044Z 31003KT 09/02 A3011 RMK A01 T00890019  RH  061%=      5-min Rain = 0
KTAS 180045Z 31002KT 09/02 A3011 RMK A01 T00890020  RH  062%=      5-min Rain = 0
KTAS 180046Z 31002KT 09/02 A3011 RMK A01 T00890020  RH  062%=      5-min Rain = 0
KTAS 180047Z 31002KT 09/02 A3011 RMK A01 T00890020  RH  062%=      5-min Rain = 0
KTAS 180048Z 31002KT 09/02 A3011 RMK A01 T00890020  RH  062%=      5-min Rain = 0
KTAS 180049Z 31002KT 09/02 A3011 RMK A01 T00890020  RH  062%=      5-min Rain = 0
KTAS 180050Z 31002KT 09/02 A3011 RMK A01 T00880019  RH  062%=      5-min Rain = 0
KTAS 180051Z 31003KT 09/02 A3011 RMK A01 T00880019  RH  062%=      5-min Rain = 0
KTAS 180052Z 31002KT 09/02 A3011 RMK A01 T00870019  RH  062%=      5-min Rain = 0
KTAS 180053Z 31002KT 09/02 A3011 RMK A01 T00870019  RH  062%=      5-min Rain = 0
KTAS 180054Z 31002KT 09/02 A3011 RMK A01 T00860019  RH  063%=      5-min Rain = 0
KTAS 180055Z 31002KT 09/02 A3011 RMK A01 T00860019  RH  063%=      5-min Rain = 0
KTAS 180056Z 31002KT 09/02 A3011 RMK A01 T00870019  RH  063%=      5-min Rain = 0
KTAS 180057Z 31002KT 09/02 A3011 RMK A01 T00870019  RH  062%=      5-min Rain = 0
KTAS 180058Z 31002KT 09/02 A3011 RMK A01 T00880020  RH  062%=      5-min Rain = 0
KTAS 180059Z 31002KT 09/02 A3011 RMK A01 T00880020  RH  062%=      5-min Rain = 0
KTAS 180100Z 31002KT 09/02 A3011 RMK A01 T00880019  RH  062%=      5-min Rain = 0
KTAS 180101Z 31002KT 09/02 A3011 RMK A01 T00890019  RH  062%=      5-min Rain = 0
KTAS 180102Z 31002KT 09/02 A3011 RMK A01 T00890019  RH  062%=      5-min Rain = 0
KTAS 180103Z 31002KT 09/02 A3011 RMK A01 T00900019  RH  061%=      5-min Rain = 0
KTAS 180104Z 31002KT 09/02 A3011 RMK A01 T00890019  RH  061%=      5-min Rain = 0
KTAS 180105Z 31002KT 09/02 A3011 RMK A01 T00890019  RH  061%=      5-min Rain = 0
KTAS 180106Z 31001KT 09/02 A3011 RMK A01 T00880018  RH  062%=      5-min Rain = 0
KTAS 180107Z 31001KT 09/02 A3011 RMK A01 T00870018  RH  062%=      5-min Rain = 0
KTAS 180108Z 31001KT 09/02 A3011 RMK A01 T00870018  RH  062%=      5-min Rain = 0
KTAS 180109Z 31001KT 09/02 A3011 RMK A01 T00860018  RH  062%=      5-min Rain = 0
KTAS 180110Z 31001KT 09/02 A3011 RMK A01 T00860019  RH  062%=      5-min Rain = 0
KTAS 180111Z 31001KT 09/02 A3011 RMK A01 T00860019  RH  063%=      5-min Rain = 0
KTAS 180112Z 31001KT 09/02 A3011 RMK A01 T00860019  RH  062%=      5-min Rain = 0
KTAS 180113Z 31001KT 09/02 A3011 RMK A01 T00860019  RH  062%=      5-min Rain = 0
KTAS 180114Z 31001KT 09/02 A3011 RMK A01 T00860019  RH  062%=      5-min Rain = 0
KTAS 180115Z 31001KT 09/02 A3011 RMK A01 T00860019  RH  062%=      5-min Rain = 0
KTAS 180116Z 31001KT 09/02 A3011 RMK A01 T00860019  RH  063%=      5-min Rain = 0
KTAS 180117Z 31001KT 09/02 A3011 RMK A01 T00860019  RH  063%=      5-min Rain = 0
KTAS 180118Z 31001KT 09/02 A3011 RMK A01 T00860019  RH  063%=      5-min Rain = 0
KTAS 180119Z 31001KT 09/02 A3011 RMK A01 T00850019  RH  063%=      5-min Rain = 0
KTAS 180120Z 31001KT 08/02 A3011 RMK A01 T00840018  RH  063%=      5-min Rain = 0
KTAS 180121Z 31001KT 08/02 A3011 RMK A01 T00830018  RH  064%=      5-min Rain = 0
KTAS 180122Z 31001KT 08/02 A3011 RMK A01 T00820018  RH  064%=      5-min Rain = 0
KTAS 180123Z 31001KT 08/02 A3011 RMK A01 T00810018  RH  064%=      5-min Rain = 0
KTAS 180124Z 31001KT 08/02 A3011 RMK A01 T00810018  RH  065%=      5-min Rain = 0
KTAS 180125Z 31001KT 08/02 A3011 RMK A01 T00810019  RH  065%=      5-min Rain = 0
KTAS 180126Z 31001KT 08/02 A3011 RMK A01 T00800019  RH  065%=      5-min Rain = 0
KTAS 180127Z 31001KT 08/02 A3011 RMK A01 T00810020  RH  065%=      5-min Rain = 0
KTAS 180128Z 31001KT 08/02 A3011 RMK A01 T00810020  RH  065%=      5-min Rain = 0
KTAS 180129Z 31001KT 08/02 A3011 RMK A01 T00820020  RH  065%=      5-min Rain = 0
KTAS 180130Z 31001KT 08/02 A3011 RMK A01 T00830020  RH  065%=      5-min Rain = 0
KTAS 180131Z 31001KT 08/02 A3011 RMK A01 T00840020  RH  064%=      5-min Rain = 0
KTAS 180132Z 31001KT 08/02 A3011 RMK A01 T00840020  RH  064%=      5-min Rain = 0
KTAS 180133Z 31001KT 08/02 A3011 RMK A01 T00840020  RH  064%=      5-min Rain = 0
KTAS 180134Z 31001KT 08/02 A3011 RMK A01 T00830020  RH  064%=      5-min Rain = 0
KTAS 180135Z 31001KT 08/02 A3011 RMK A01 T00820020  RH  065%=      5-min Rain = 0
KTAS 180136Z 31001KT 08/02 A3011 RMK A01 T00810019  RH  065%=      5-min Rain = 0
KTAS 180137Z 31000KT 08/02 A3011 RMK A01 T00800019  RH  065%=      5-min Rain = 0
KTAS 180138Z 31000KT 08/02 A3011 RMK A01 T00800019  RH  065%=      5-min Rain = 0
KTAS 180139Z 31000KT 08/02 A3011 RMK A01 T00800019  RH  065%=      5-min Rain = 0
KTAS 180140Z 31000KT 08/02 A3011 RMK A01 T00800019  RH  065%=      5-min Rain = 0
KTAS 180141Z 00000KT 08/02 A3011 RMK A01 T00800019  RH  065%=      5-min Rain = 0
KTAS 180142Z 00000KT 08/02 A3011 RMK A01 T00810019  RH  065%=      5-min Rain = 0
KTAS 180143Z 00000KT 08/02 A3011 RMK A01 T00820019  RH  065%=      5-min Rain = 0
KTAS 180144Z 00000KT 08/02 A3011 RMK A01 T00830019  RH  064%=      5-min Rain = 0
KTAS 180145Z 00000KT 08/02 A3011 RMK A01 T00840020  RH  064%=      5-min Rain = 0
KTAS 180146Z 00000KT 08/02 A3011 RMK A01 T00840019  RH  064%=      5-min Rain = 0
KTAS 180147Z 00000KT 08/02 A3011 RMK A01 T00840020  RH  064%=      5-min Rain = 0
KTAS 180148Z 00000KT 09/02 A3011 RMK A01 T00850020  RH  064%=      5-min Rain = 0
KTAS 180149Z 00000KT 09/02 A3011 RMK A01 T00860019  RH  063%=      5-min Rain = 0
KTAS 180150Z 00000KT 09/02 A3011 RMK A01 T00870019  RH  062%=      5-min Rain = 0
KTAS 180151Z 00000KT 09/02 A3011 RMK A01 T00860019  RH  063%=      5-min Rain = 0
KTAS 180152Z 00000KT 09/02 A3011 RMK A01 T00860019  RH  063%=      5-min Rain = 0
KTAS 180153Z 00000KT 09/02 A3011 RMK A01 T00850020  RH  064%=      5-min Rain = 0
KTAS 180154Z 00000KT 08/02 A3011 RMK A01 T00830020  RH  064%=      5-min Rain = 0
KTAS 180155Z 00000KT 08/02 A3011 RMK A01 T00820020  RH  065%=      5-min Rain = 0
KTAS 180156Z 00000KT 08/02 A3011 RMK A01 T00810019  RH  065%=      5-min Rain = 0
KTAS 180157Z 00000KT 08/02 A3011 RMK A01 T00800019  RH  065%=      5-min Rain = 0
KTAS 180158Z 00000KT 08/02 A3011 RMK A01 T00790018  RH  065%=      5-min Rain = 0
KTAS 180159Z 00000KT 08/02 A3011 RMK A01 T00770017  RH  066%=      5-min Rain = 0
KTAS 180200Z 00000KT 08/02 A3011 RMK A01 T00750017  RH  067%=      5-min Rain = 0
KTAS 180201Z 00000KT 07/02 A3011 RMK A01 T00740017  RH  067%=      5-min Rain = 0
KTAS 180202Z 00000KT 07/02 A3011 RMK A01 T00730018  RH  068%=      5-min Rain = 0
KTAS 180203Z 00000KT 07/02 A3011 RMK A01 T00730018  RH  068%=      5-min Rain = 0
KTAS 180204Z 00000KT 07/02 A3011 RMK A01 T00730018  RH  068%=      5-min Rain = 0
KTAS 180205Z 00000KT 07/02 A3011 RMK A01 T00730018  RH  068%=      5-min Rain = 0
KTAS 180206Z 00000KT 07/02 A3011 RMK A01 T00740019  RH  068%=      5-min Rain = 0
KTAS 180207Z 00000KT 07/02 A3011 RMK A01 T00740018  RH  068%=      5-min Rain = 0
KTAS 180208Z 00000KT 07/02 A3011 RMK A01 T00740018  RH  068%=      5-min Rain = 0
KTAS 180209Z 00000KT 07/01 A3011 RMK A01 T00710014  RH  067%=      5-min Rain = 0
KTAS 180210Z 00000KT 07/02 A3011 RMK A01 T00690016  RH  069%=      5-min Rain = 0
KTAS 180211Z 00000KT 07/02 A3011 RMK A01 T00690017  RH  069%=      5-min Rain = 0
KTAS 180212Z 00000KT 07/02 A3011 RMK A01 T00690017  RH  069%=      5-min Rain = 0
KTAS 180213Z 00000KT 07/02 A3011 RMK A01 T00680016  RH  069%=      5-min Rain = 0
KTAS 180214Z 00000KT 07/02 A3011 RMK A01 T00670016  RH  070%=      5-min Rain = 0
KTAS 180215Z 00000KT 07/02 A3011 RMK A01 T00670016  RH  070%=      5-min Rain = 0
KTAS 180216Z 00000KT 07/02 A3011 RMK A01 T00670017  RH  071%=      5-min Rain = 0
KTAS 180217Z 00000KT 07/02 A3011 RMK A01 T00670017  RH  070%=      5-min Rain = 0
KTAS 180218Z 00000KT 07/02 A3011 RMK A01 T00670017  RH  071%=      5-min Rain = 0
KTAS 180219Z 00000KT 07/02 A3011 RMK A01 T00670017  RH  070%=      5-min Rain = 0
KTAS 180220Z 31000KT 07/02 A3011 RMK A01 T00680018  RH  070%=      5-min Rain = 0
KTAS 180221Z 31001KT 07/02 A3011 RMK A01 T00690018  RH  070%=      5-min Rain = 0
KTAS 180222Z 31001KT 07/02 A3011 RMK A01 T00710018  RH  069%=      5-min Rain = 0
KTAS 180223Z 00001KT 07/02 A3011 RMK A01 T00720018  RH  069%=      5-min Rain = 0
KTAS 180224Z 03001KT 07/02 A3011 RMK A01 T00730018  RH  068%=      5-min Rain = 0
KTAS 180225Z 03001KT 07/02 A3011 RMK A01 T00720018  RH  068%=      5-min Rain = 0
KTAS 180226Z 03002KT 07/02 A3011 RMK A01 T00710017  RH  069%=      5-min Rain = 0
KTAS 180227Z 03002KT 07/02 A3011 RMK A01 T00690016  RH  069%=      5-min Rain = 0
KTAS 180228Z 03002KT 07/01 A3011 RMK A01 T00660013  RH  069%=      5-min Rain = 0
KTAS 180229Z 03002KT 06/01 A3011 RMK A01 T00600005  RH  068%=      5-min Rain = 0
KTAS 180230Z 03002KT 06/00 A3011 RMK A01 T00550003  RH  069%=      5-min Rain = 0
KTAS 180231Z 03002KT 05/00 A3011 RMK A01 T00520004  RH  071%=      5-min Rain = 0
KTAS 180232Z 03001KT 05/01 A3011 RMK A01 T00500006  RH  073%=      5-min Rain = 0
KTAS 180233Z 03001KT 05/01 A3011 RMK A01 T00500008  RH  074%=      5-min Rain = 0
KTAS 180234Z 03001KT 05/01 A3011 RMK A01 T00500010  RH  075%=      5-min Rain = 0
KTAS 180235Z 03001KT 05/01 A3011 RMK A01 T00510012  RH  076%=      5-min Rain = 0
KTAS 180236Z 03002KT 05/01 A3011 RMK A01 T00510012  RH  076%=      5-min Rain = 0
KTAS 180237Z 03002KT 05/01 A3011 RMK A01 T00500010  RH  075%=      5-min Rain = 0
KTAS 180238Z 03002KT 05/01 A3011 RMK A01 T00490007  RH  074%=      5-min Rain = 0
KTAS 180239Z 03003KT 05/01 A3011 RMK A01 T00480008  RH  075%=      5-min Rain = 0
KTAS 180240Z 04003KT 05/01 A3011 RMK A01 T00490011  RH  076%=      5-min Rain = 0
KTAS 180241Z 04003KT 05/01 A3011 RMK A01 T00500012  RH  077%=      5-min Rain = 0
KTAS 180242Z 04003KT 05/01 A3011 RMK A01 T00500012  RH  076%=      5-min Rain = 0
KTAS 180243Z 05003KT 05/01 A3011 RMK A01 T00520013  RH  076%=      5-min Rain = 0
KTAS 180244Z 05003KT 05/01 A3011 RMK A01 T00530013  RH  076%=      5-min Rain = 0
KTAS 180245Z 05003KT 05/01 A3011 RMK A01 T00540014  RH  075%=      5-min Rain = 0
KTAS 180246Z 05003KT 06/02 A3011 RMK A01 T00560015  RH  075%=      5-min Rain = 0
KTAS 180247Z 05003KT 06/02 A3011 RMK A01 T00570015  RH  074%=      5-min Rain = 0
KTAS 180248Z 05003KT 06/01 A3011 RMK A01 T00580014  RH  073%=      5-min Rain = 0
KTAS 180249Z 05003KT 06/01 A3011 RMK A01 T00580013  RH  073%=      5-min Rain = 0
KTAS 180250Z 05003KT 06/01 A3011 RMK A01 T00580013  RH  073%=      5-min Rain = 0
KTAS 180251Z 05003KT 06/01 A3011 RMK A01 T00570013  RH  073%=      5-min Rain = 0
KTAS 180252Z 05003KT 06/01 A3011 RMK A01 T00570014  RH  073%=      5-min Rain = 0
KTAS 180253Z 05003KT 06/01 A3011 RMK A01 T00580014  RH  073%=      5-min Rain = 0
KTAS 180254Z 05003KT 06/01 A3011 RMK A01 T00590014  RH  073%=      5-min Rain = 0
KTAS 180255Z 05003KT 06/01 A3011 RMK A01 T00580013  RH  073%=      5-min Rain = 0
KTAS 180256Z 05003KT 06/01 A3011 RMK A01 T00580013  RH  073%=      5-min Rain = 0
KTAS 180257Z 05003KT 06/01 A3011 RMK A01 T00570012  RH  073%=      5-min Rain = 0
KTAS 180258Z 05003KT 06/01 A3011 RMK A01 T00570013  RH  073%=      5-min Rain = 0
KTAS 180259Z 05003KT 06/01 A3011 RMK A01 T00570013  RH  073%=      5-min Rain = 0
KTAS 180300Z 05003KT 06/01 A3011 RMK A01 T00560012  RH  073%=      5-min Rain = 0
KTAS 180301Z 05003KT 06/01 A3011 RMK A01 T00560012  RH  073%=      5-min Rain = 0
KTAS 180302Z 05003KT 06/01 A3011 RMK A01 T00550011  RH  073%=      5-min Rain = 0
KTAS 180303Z 05003KT 05/01 A3011 RMK A01 T00540010  RH  073%=      5-min Rain = 0
KTAS 180304Z 05003KT 05/01 A3011 RMK A01 T00530010  RH  074%=      5-min Rain = 0
KTAS 180305Z 05003KT 05/01 A3011 RMK A01 T00530011  RH  074%=      5-min Rain = 0
KTAS 180306Z 05004KT 05/01 A3011 RMK A01 T00540012  RH  074%=      5-min Rain = 0
KTAS 180307Z 05004KT 06/01 A3011 RMK A01 T00550012  RH  074%=      5-min Rain = 0
KTAS 180308Z 05004KT 06/01 A3011 RMK A01 T00550011  RH  074%=      5-min Rain = 0
KTAS 180309Z 05003KT 05/01 A3011 RMK A01 T00540010  RH  073%=      5-min Rain = 0
KTAS 180310Z 05003KT 05/01 A3011 RMK A01 T00530009  RH  073%=      5-min Rain = 0
KTAS 180311Z 05003KT 05/01 A3011 RMK A01 T00520009  RH  074%=      5-min Rain = 0
KTAS 180312Z 06003KT 05/01 A3012 RMK A01 T00510009  RH  074%=      5-min Rain = 0
KTAS 180313Z 06003KT 05/01 A3012 RMK A01 T00510009  RH  074%=      5-min Rain = 0
KTAS 180314Z 06003KT 05/01 A3012 RMK A01 T00500010  RH  075%=      5-min Rain = 0
KTAS 180315Z 06002KT 05/01 A3012 RMK A01 T00500011  RH  076%=      5-min Rain = 0
KTAS 180316Z 06002KT 05/01 A3012 RMK A01 T00500011  RH  076%=      5-min Rain = 0
KTAS 180317Z 06002KT 05/01 A3012 RMK A01 T00500011  RH  076%=      5-min Rain = 0
KTAS 180318Z 06002KT 05/01 A3012 RMK A01 T00510011  RH  076%=      5-min Rain = 0
KTAS 180319Z 06002KT 05/01 A3012 RMK A01 T00510011  RH  076%=      5-min Rain = 0
KTAS 180320Z 06002KT 05/01 A3012 RMK A01 T00510010  RH  075%=      5-min Rain = 0
KTAS 180321Z 06002KT 05/01 A3012 RMK A01 T00500009  RH  075%=      5-min Rain = 0
KTAS 180322Z 06002KT 05/01 A3012 RMK A01 T00490008  RH  075%=      5-min Rain = 0
KTAS 180323Z 06002KT 05/01 A3012 RMK A01 T00480007  RH  075%=      5-min Rain = 0
KTAS 180324Z 06002KT 05/01 A3012 RMK A01 T00460006  RH  075%=      5-min Rain = 0
KTAS 180325Z 06002KT 05/01 A3012 RMK A01 T00450006  RH  076%=      5-min Rain = 0
KTAS 180326Z 06002KT 05/01 A3012 RMK A01 T00450006  RH  076%=      5-min Rain = 0
KTAS 180327Z 06001KT 05/01 A3012 RMK A01 T00450006  RH  076%=      5-min Rain = 0
KTAS 180328Z 06002KT 05/01 A3012 RMK A01 T00450007  RH  076%=      5-min Rain = 0
KTAS 180329Z 06002KT 04/01 A3012 RMK A01 T00440006  RH  076%=      5-min Rain = 0
KTAS 180330Z 06002KT 04/01 A3012 RMK A01 T00440006  RH  077%=      5-min Rain = 0
KTAS 180331Z 06002KT 04/01 A3012 RMK A01 T00440008  RH  077%=      5-min Rain = 0
KTAS 180332Z 06001KT 05/01 A3012 RMK A01 T00450009  RH  078%=      5-min Rain = 0
KTAS 180333Z 06001KT 04/01 A3012 RMK A01 T00440008  RH  077%=      5-min Rain = 0
KTAS 180334Z 06001KT 04/01 A3012 RMK A01 T00440008  RH  078%=      5-min Rain = 0
KTAS 180335Z 06001KT 04/01 A3012 RMK A01 T00430008  RH  078%=      5-min Rain = 0
KTAS 180336Z 06001KT 04/01 A3012 RMK A01 T00420008  RH  078%=      5-min Rain = 0
KTAS 180337Z 06001KT 04/01 A3012 RMK A01 T00420009  RH  079%=      5-min Rain = 0
KTAS 180338Z 06001KT 04/01 A3012 RMK A01 T00430010  RH  079%=      5-min Rain = 0
KTAS 180339Z 06000KT 04/01 A3012 RMK A01 T00420008  RH  079%=      5-min Rain = 0
KTAS 180340Z 06000KT 04/01 A3012 RMK A01 T00410007  RH  079%=      5-min Rain = 0
KTAS 180341Z 06000KT 04/01 A3012 RMK A01 T00400007  RH  079%=      5-min Rain = 0
KTAS 180342Z 00000KT 04/01 A3012 RMK A01 T00400008  RH  080%=      5-min Rain = 0
KTAS 180343Z 00000KT 04/01 A3012 RMK A01 T00400010  RH  080%=      5-min Rain = 0
KTAS 180344Z 00000KT 04/01 A3012 RMK A01 T00410010  RH  081%=      5-min Rain = 0
KTAS 180345Z 00000KT 04/01 A3011 RMK A01 T00410011  RH  081%=      5-min Rain = 0
KTAS 180346Z 00000KT 04/01 A3011 RMK A01 T00420012  RH  081%=      5-min Rain = 0
KTAS 180347Z 00000KT 04/01 A3011 RMK A01 T00420012  RH  081%=      5-min Rain = 0
KTAS 180348Z 00000KT 04/01 A3011 RMK A01 T00430012  RH  081%=      5-min Rain = 0
KTAS 180349Z 00000KT 04/01 A3011 RMK A01 T00430012  RH  080%=      5-min Rain = 0
KTAS 180350Z 11000KT 04/01 A3011 RMK A01 T00430012  RH  080%=      5-min Rain = 0
KTAS 180351Z 14002KT 04/01 A3011 RMK A01 T00440012  RH  080%=      5-min Rain = 0
KTAS 180352Z 16002KT 04/01 A3011 RMK A01 T00440013  RH  080%=      5-min Rain = 0
KTAS 180353Z 16003KT 05/01 A3011 RMK A01 T00450014  RH  080%=      5-min Rain = 0
KTAS 180354Z 16003KT 05/01 A3011 RMK A01 T00450013  RH  079%=      5-min Rain = 0
KTAS 180355Z 16003KT 05/01 A3011 RMK A01 T00450013  RH  080%=      5-min Rain = 0
KTAS 180356Z 16003KT 05/01 A3011 RMK A01 T00450013  RH  080%=      5-min Rain = 0
KTAS 180357Z 16003KT 05/01 A3011 RMK A01 T00450012  RH  079%=      5-min Rain = 0
KTAS 180358Z 16003KT 05/01 A3011 RMK A01 T00450012  RH  079%=      5-min Rain = 0
KTAS 180359Z 16003KT 05/01 A3011 RMK A01 T00450012  RH  079%=      5-min Rain = 0
KTAS 180400Z 17003KT 04/01 A3011 RMK A01 T00440012  RH  079%=      5-min Rain = 0
KTAS 180401Z 17004KT 04/01 A3011 RMK A01 T00440012  RH  080%=      5-min Rain = 0
KTAS 180402Z 18004KT 05/01 A3011 RMK A01 T00450013  RH  080%=      5-min Rain = 0
KTAS 180403Z 18005KT 05/01 A3011 RMK A01 T00460013  RH  079%=      5-min Rain = 0
KTAS 180404Z 18005KT 05/01 A3011 RMK A01 T00460013  RH  079%=      5-min Rain = 0
KTAS 180405Z 18005KT 05/01 A3011 RMK A01 T00460013  RH  079%=      5-min Rain = 0
KTAS 180406Z 18006KT 05/01 A3011 RMK A01 T00470012  RH  078%=      5-min Rain = 0
KTAS 180407Z 18006KT 05/01 A3011 RMK A01 T00460012  RH  078%=      5-min Rain = 0
KTAS 180408Z 19006KT 05/01 A3011 RMK A01 T00450011  RH  078%=      5-min Rain = 0
KTAS 180409Z 19006KT 04/01 A3011 RMK A01 T00440010  RH  078%=      5-min Rain = 0
KTAS 180410Z 20005KT 04/01 A3011 RMK A01 T00430009  RH  079%=      5-min Rain = 0
KTAS 180411Z 20005KT 04/01 A3011 RMK A01 T00430010  RH  079%=      5-min Rain = 0
KTAS 180412Z 20005KT 04/01 A3011 RMK A01 T00430011  RH  079%=      5-min Rain = 0
KTAS 180413Z 20005KT 05/01 A3011 RMK A01 T00450013  RH  080%=      5-min Rain = 0
KTAS 180414Z 20005KT 05/01 A3011 RMK A01 T00460013  RH  079%=      5-min Rain = 0
KTAS 180415Z 20005KT 05/01 A3011 RMK A01 T00470014  RH  079%=      5-min Rain = 0
KTAS 180416Z 20006KT 05/01 A3011 RMK A01 T00480014  RH  079%=      5-min Rain = 0
KTAS 180417Z 20005KT 05/01 A3011 RMK A01 T00490014  RH  078%=      5-min Rain = 0
KTAS 180418Z 20006KT 05/01 A3011 RMK A01 T00490014  RH  078%=      5-min Rain = 0
KTAS 180419Z 20006KT 05/01 A3011 RMK A01 T00500014  RH  078%=      5-min Rain = 0
KTAS 180420Z 20005KT 05/01 A3011 RMK A01 T00500014  RH  078%=      5-min Rain = 0
KTAS 180421Z 20005KT 05/01 A3011 RMK A01 T00500014  RH  078%=      5-min Rain = 0
KTAS 180422Z 20005KT 05/01 A3011 RMK A01 T00490014  RH  078%=      5-min Rain = 0
KTAS 180423Z 20005KT 05/01 A3011 RMK A01 T00490013  RH  078%=      5-min Rain = 0
KTAS 180424Z 20004KT 05/01 A3011 RMK A01 T00480013  RH  078%=      5-min Rain = 0
KTAS 180425Z 20004KT 05/01 A3011 RMK A01 T00480013  RH  078%=      5-min Rain = 0
KTAS 180426Z 20004KT 05/01 A3011 RMK A01 T00470012  RH  078%=      5-min Rain = 0
KTAS 180427Z 20003KT 05/01 A3011 RMK A01 T00470011  RH  078%=      5-min Rain = 0
KTAS 180428Z 20003KT 05/01 A3011 RMK A01 T00460012  RH  078%=      5-min Rain = 0
KTAS 180429Z 20003KT 05/01 A3011 RMK A01 T00470014  RH  079%=      5-min Rain = 0
KTAS 180430Z 20004KT 05/01 A3011 RMK A01 T00480014  RH  078%=      5-min Rain = 0
KTAS 180431Z 20004KT 05/01 A3011 RMK A01 T00480013  RH  078%=      5-min Rain = 0
KTAS 180432Z 20004KT 05/01 A3011 RMK A01 T00480013  RH  078%=      5-min Rain = 0
KTAS 180433Z 20005KT 05/01 A3011 RMK A01 T00470013  RH  079%=      5-min Rain = 0
KTAS 180434Z 20005KT 05/01 A3011 RMK A01 T00460012  RH  079%=      5-min Rain = 0
KTAS 180435Z 20005KT 04/01 A3011 RMK A01 T00440011  RH  079%=      5-min Rain = 0
KTAS 180436Z 20005KT 04/01 A3011 RMK A01 T00430011  RH  080%=      5-min Rain = 0
KTAS 180437Z 20005KT 04/01 A3011 RMK A01 T00420012  RH  081%=      5-min Rain = 0
KTAS 180438Z 19005KT 04/01 A301 RMK A01 T00430014  RH  081%=      5-min Rain = 0
KTAS 180439Z 19004KT 04/02 A301 RMK A01 T00440015  RH  081%=      5-min Rain = 0
KTAS 180440Z 19004KT 04/01 A301 RMK A01 T00440014  RH  081%=      5-min Rain = 0
KTAS 180441Z 19004KT 04/01 A301 RMK A01 T00440014  RH  081%=      5-min Rain = 0
KTAS 180442Z 19004KT 04/01 A301 RMK A01 T00440014  RH  081%=      5-min Rain = 0
KTAS 180443Z 19004KT 04/01 A301 RMK A01 T00430014  RH  081%=      5-min Rain = 0
KTAS 180444Z 19004KT 04/01 A301 RMK A01 T00430013  RH  081%=      5-min Rain = 0
KTAS 180445Z 19004KT 04/01 A301 RMK A01 T00420014  RH  082%=      5-min Rain = 0
KTAS 180446Z 19005KT 04/02 A301 RMK A01 T00430015  RH  082%=      5-min Rain = 0
KTAS 180447Z 19005KT 04/02 A301 RMK A01 T00440015  RH  082%=      5-min Rain = 0
KTAS 180448Z 19005KT 04/01 A301 RMK A01 T00430014  RH  081%=      5-min Rain = 0
KTAS 180449Z 19005KT 04/01 A301 RMK A01 T00430014  RH  081%=      5-min Rain = 0
KTAS 180450Z 19005KT 04/01 A301 RMK A01 T00430014  RH  081%=      5-min Rain = 0
KTAS 180451Z 19005KT 04/01 A301 RMK A01 T00420013  RH  082%=      5-min Rain = 0
KTAS 180452Z 19005KT 04/01 A301 RMK A01 T00410013  RH  082%=      5-min Rain = 0
KTAS 180453Z 19005KT 04/01 A301 RMK A01 T00400012  RH  082%=      5-min Rain = 0
KTAS 180454Z 19005KT 04/01 A301 RMK A01 T00390011  RH  082%=      5-min Rain = 0
KTAS 180455Z 19005KT 04/01 A301 RMK A01 T00380010  RH  082%=      5-min Rain = 0
KTAS 180456Z 19005KT 04/01 A301 RMK A01 T00370010  RH  083%=      5-min Rain = 0
KTAS 180457Z 19004KT 04/01 A301 RMK A01 T00370011  RH  083%=      5-min Rain = 0
KTAS 180458Z 19005KT 04/01 A301 RMK A01 T00380012  RH  083%=      5-min Rain = 0
KTAS 180459Z 19005KT 04/01 A301 RMK A01 T00380012  RH  083%=      5-min Rain = 0
KTAS 180500Z 19005KT 04/01 A301 RMK A01 T00370010  RH  083%=      5-min Rain = 0
KTAS 180501Z 20005KT 04/01 A301 RMK A01 T00360010  RH  083%=      5-min Rain = 0
KTAS 180502Z 20005KT 04/01 A301 RMK A01 T00370012  RH  084%=      5-min Rain = 0
KTAS 180503Z 20005KT 04/01 A301 RMK A01 T00380013  RH  084%=      5-min Rain = 0
KTAS 180504Z 20005KT 04/02 A301 RMK A01 T00400016  RH  084%=      5-min Rain = 0
KTAS 180505Z 20005KT 04/02 A301 RMK A01 T00420016  RH  083%=      5-min Rain = 0
KTAS 180506Z 20005KT 04/02 A301 RMK A01 T00430015  RH  082%=      5-min Rain = 0
KTAS 180507Z 20004KT 04/02 A301 RMK A01 T00430015  RH  082%=      5-min Rain = 0
KTAS 180508Z 19004KT 04/02 A301 RMK A01 T00440015  RH  082%=      5-min Rain = 0
KTAS 180509Z 19004KT 04/02 A301 RMK A01 T00440015  RH  081%=      5-min Rain = 0
KTAS 180510Z 19005KT 04/01 A301 RMK A01 T00440014  RH  081%=      5-min Rain = 0
KTAS 180511Z 19005KT 04/02 A301 RMK A01 T00440015  RH  081%=      5-min Rain = 0
KTAS 180512Z 19005KT 05/02 A301 RMK A01 T00450015  RH  081%=      5-min Rain = 0
KTAS 180513Z 19005KT 05/01 A301 RMK A01 T00450014  RH  080%=      5-min Rain = 0
KTAS 180514Z 19005KT 04/01 A301 RMK A01 T00440013  RH  080%=      5-min Rain = 0
KTAS 180515Z 19005KT 04/01 A301 RMK A01 T00440013  RH  081%=      5-min Rain = 0
KTAS 180516Z 20005KT 04/01 A301 RMK A01 T00440014  RH  081%=      5-min Rain = 0
KTAS 180517Z 20005KT 04/01 A301 RMK A01 T00430013  RH  081%=      5-min Rain = 0
KTAS 180518Z 20005KT 04/01 A301 RMK A01 T00430013  RH  081%=      5-min Rain = 0
KTAS 180519Z 20004KT 04/01 A301 RMK A01 T00430013  RH  081%=      5-min Rain = 0
KTAS 180520Z 20005KT 04/01 A301 RMK A01 T00420013  RH  081%=      5-min Rain = 0
KTAS 180521Z 20005KT 04/01 A3009 RMK A01 T00420013  RH  081%=      5-min Rain = 0
KTAS 180522Z 20005KT 04/01 A3009 RMK A01 T00430014  RH  081%=      5-min Rain = 0
KTAS 180523Z 20005KT 04/01 A3009 RMK A01 T00430013  RH  081%=      5-min Rain = 0
KTAS 180524Z 20005KT 04/01 A3009 RMK A01 T00420013  RH  081%=      5-min Rain = 0
KTAS 180525Z 20005KT 04/01 A3009 RMK A01 T00420013  RH  081%=      5-min Rain = 0
KTAS 180526Z 20005KT 04/01 A3009 RMK A01 T00410012  RH  081%=      5-min Rain = 0
KTAS 180527Z 20005KT 04/01 A3009 RMK A01 T00410012  RH  082%=      5-min Rain = 0
KTAS 180528Z 20005KT 04/01 A3009 RMK A01 T00410012  RH  081%=      5-min Rain = 0
KTAS 180529Z 20005KT 04/01 A3009 RMK A01 T00410012  RH  082%=      5-min Rain = 0
KTAS 180530Z 20005KT 04/01 A3009 RMK A01 T00410012  RH  081%=      5-min Rain = 0
KTAS 180531Z 20005KT 04/01 A3009 RMK A01 T00410012  RH  081%=      5-min Rain = 0
KTAS 180532Z 20005KT 04/01 A3009 RMK A01 T00410012  RH  081%=      5-min Rain = 0
KTAS 180533Z 20005KT 04/01 A3009 RMK A01 T00420013  RH  081%=      5-min Rain = 0
KTAS 180534Z 20005KT 04/01 A3009 RMK A01 T00420012  RH  081%=      5-min Rain = 0
KTAS 180535Z 20005KT 04/01 A3009 RMK A01 T00420012  RH  081%=      5-min Rain = 0
KTAS 180536Z 20005KT 04/01 A3009 RMK A01 T00410011  RH  081%=      5-min Rain = 0
KTAS 180537Z 20005KT 04/01 A3009 RMK A01 T00410011  RH  081%=      5-min Rain = 0
KTAS 180538Z 20006KT 04/01 A3009 RMK A01 T00410011  RH  081%=      5-min Rain = 0
KTAS 180539Z 20006KT 04/01 A3009 RMK A01 T00420011  RH  081%=      5-min Rain = 0
KTAS 180540Z 20006KT 04/01 A3009 RMK A01 T00410011  RH  081%=      5-min Rain = 0
KTAS 180541Z 20006KT 04/01 A3009 RMK A01 T00410011  RH  081%=      5-min Rain = 0
KTAS 180542Z 20006KT 04/01 A3009 RMK A01 T00420011  RH  080%=      5-min Rain = 0
KTAS 180543Z 20006KT 04/01 A3009 RMK A01 T00420011  RH  080%=      5-min Rain = 0
KTAS 180544Z 20005KT 04/01 A3009 RMK A01 T00430011  RH  080%=      5-min Rain = 0
KTAS 180545Z 20005KT 04/01 A3009 RMK A01 T00440012  RH  080%=      5-min Rain = 0
KTAS 180546Z 20005KT 04/01 A3009 RMK A01 T00440011  RH  079%=      5-min Rain = 0
KTAS 180547Z 20005KT 04/01 A3009 RMK A01 T00440011  RH  079%=      5-min Rain = 0
KTAS 180548Z 20006KT 04/01 A3009 RMK A01 T00440010  RH  078%=      5-min Rain = 0
KTAS 180549Z 20005KT 04/01 A3009 RMK A01 T00420009  RH  079%=      5-min Rain = 0
KTAS 180550Z 20005KT 04/01 A3009 RMK A01 T00410007  RH  079%=      5-min Rain = 0
KTAS 180551Z 20006KT 04/01 A3009 RMK A01 T00400008  RH  079%=      5-min Rain = 0
KTAS 180552Z 20006KT 04/01 A3009 RMK A01 T00400008  RH  080%=      5-min Rain = 0
KTAS 180553Z 20006KT 04/01 A3009 RMK A01 T00390007  RH  080%=      5-min Rain = 0
KTAS 180554Z 19006KT 04/01 A3009 RMK A01 T00400009  RH  080%=      5-min Rain = 0
KTAS 180555Z 20006KT 04/01 A3009 RMK A01 T00420011  RH  080%=      5-min Rain = 0
KTAS 180556Z 20006KT 04/01 A3009 RMK A01 T00430011  RH  080%=      5-min Rain = 0
KTAS 180557Z 20006KT 04/01 A3009 RMK A01 T00430010  RH  079%=      5-min Rain = 0
KTAS 180558Z 20006KT 04/01 A3009 RMK A01 T00420008  RH  079%=      5-min Rain = 0
KTAS 180559Z 20006KT 04/01 A3009 RMK A01 T00410008  RH  079%=      5-min Rain = 0

Page generated in 0.076 seconds.